Wetterdaten: Freitag, 28.10.2022
Datum Zeit Temp. Aussen Temp. o. S. Temp +5cm Feuchte Auss Luftdruck Regen Sonnenschein Regendauer Solar Windben Empfang
28.10.2022 00:00 17,7 C 16,7 C 13,3 C 89 % 1019,3 hPa 0,0 l/m 0 min 0 min 0 W/m 6,4 km/h (2 Bft) 100,00 %
28.10.2022 00:02 17,7 C 16,7 C 13,3 C 89 % 1019,3 hPa 0,0 l/m 0 min 0 min 0 W/m 0,0 km/h (0 Bft) 11,76 %
28.10.2022 00:04 17,7 C 16,7 C 13,3 C 89 % 1019,3 hPa 0,0 l/m 0 min 0 min 0 W/m 12,9 km/h (3 Bft) 89,13 %
28.10.2022 00:08 17,7 C 16,7 C 13,3 C 89 % 1019,3 hPa 0,0 l/m 0 min 0 min 0 W/m 16,1 km/h (3 Bft) 97,00 %
28.10.2022 00:10 17,7 C 16,7 C 13,3 C 89 % 1019,3 hPa 0,0 l/m 0 min 0 min 0 W/m 16,1 km/h (3 Bft) 100,00 %
28.10.2022 00:12 17,7 C 16,7 C 13,3 C 89 % 1019,2 hPa 0,0 l/m 0 min 0 min 0 W/m 6,4 km/h (2 Bft) 97,87 %
28.10.2022 00:14 17,7 C 16,7 C 13,3 C 89 % 1019,2 hPa 0,0 l/m 0 min 0 min 0 W/m 12,9 km/h (3 Bft) 97,87 %
28.10.2022 00:16 17,7 C 16,7 C 12,8 C 89 % 1019,2 hPa 0,0 l/m 0 min 0 min 0 W/m 6,4 km/h (2 Bft) 100,00 %
28.10.2022 00:18 17,7 C 16,7 C 13,3 C 89 % 1019,2 hPa 0,0 l/m 0 min 0 min 0 W/m 6,4 km/h (2 Bft) 97,87 %
28.10.2022 00:20 17,7 C 16,7 C 13,3 C 89 % 1019,2 hPa 0,0 l/m 0 min 0 min 0 W/m 12,9 km/h (3 Bft) 97,87 %
28.10.2022 00:22 17,7 C 16,7 C 12,8 C 89 % 1019,2 hPa 0,0 l/m 0 min 0 min 0 W/m 6,4 km/h (2 Bft) 97,87 %
28.10.2022 00:24 17,7 C 16,7 C 13,3 C 89 % 1019,2 hPa 0,0 l/m 0 min 0 min 0 W/m 16,1 km/h (3 Bft) 100,00 %
28.10.2022 00:26 17,7 C 16,7 C 13,3 C 89 % 1019,1 hPa 0,0 l/m 0 min 0 min 0 W/m 22,5 km/h (4 Bft) 97,87 %
28.10.2022 00:28 17,7 C 16,7 C 12,8 C 89 % 1019,1 hPa 0,0 l/m 0 min 0 min 0 W/m 12,9 km/h (3 Bft) 100,00 %
28.10.2022 00:30 17,6 C 16,7 C 12,8 C 89 % 1019,1 hPa 0,0 l/m 0 min 0 min 0 W/m 6,4 km/h (2 Bft) 100,00 %
28.10.2022 00:32 17,6 C 16,7 C 12,8 C 89 % 1019,1 hPa 0,0 l/m 0 min 0 min 0 W/m 6,4 km/h (2 Bft) 93,62 %
28.10.2022 00:34 17,6 C 16,7 C 12,8 C 89 % 1019,1 hPa 0,0 l/m 0 min 0 min 0 W/m 9,7 km/h (2 Bft) 100,00 %
28.10.2022 00:36 17,6 C 16,7 C 12,8 C 89 % 1019,1 hPa 0,0 l/m 0 min 0 min 0 W/m 6,4 km/h (2 Bft) 97,87 %
28.10.2022 00:38 17,6 C 16,7 C 12,8 C 89 % 1019,1 hPa 0,0 l/m 0 min 0 min 0 W/m 6,4 km/h (2 Bft) 95,74 %
28.10.2022 00:40 17,6 C 16,7 C 12,8 C 89 % 1019,0 hPa 0,0 l/m 0 min 0 min 0 W/m 9,7 km/h (2 Bft) 97,83 %
28.10.2022 00:42 17,6 C 16,7 C 12,8 C 89 % 1019,1 hPa 0,0 l/m 0 min 0 min 0 W/m 12,9 km/h (3 Bft) 93,62 %
28.10.2022 00:44 17,6 C 16,7 C 12,8 C 89 % 1019,1 hPa 0,0 l/m 0 min 0 min 0 W/m 6,4 km/h (2 Bft) 93,62 %
28.10.2022 00:46 17,6 C 16,7 C 12,8 C 89 % 1019,0 hPa 0,0 l/m 0 min 0 min 0 W/m 12,9 km/h (3 Bft) 95,74 %
28.10.2022 00:48 17,6 C 16,7 C 12,8 C 89 % 1019,0 hPa 0,0 l/m 0 min 0 min 0 W/m 12,9 km/h (3 Bft) 95,74 %
28.10.2022 00:50 17,6 C 16,7 C 12,8 C 89 % 1019,1 hPa 0,0 l/m 0 min 0 min 0 W/m 6,4 km/h (2 Bft) 93,62 %
28.10.2022 00:52 17,6 C 16,7 C 12,8 C 90 % 1019,1 hPa 0,0 l/m 0 min 0 min 0 W/m 9,7 km/h (2 Bft) 93,62 %
28.10.2022 00:54 17,6 C 16,7 C 12,8 C 90 % 1019,0 hPa 0,0 l/m 0 min 0 min 0 W/m 6,4 km/h (2 Bft) 95,65 %
28.10.2022 00:56 17,6 C 16,7 C 12,8 C 90 % 1019,0 hPa 0,0 l/m 0 min 0 min 0 W/m 6,4 km/h (2 Bft) 93,62 %
28.10.2022 00:58 17,6 C 16,7 C 12,8 C 90 % 1019,0 hPa 0,0 l/m 0 min 0 min 0 W/m 9,7 km/h (2 Bft) 95,74 %
28.10.2022 01:00 17,6 C 16,7 C 13,3 C 90 % 1019,0 hPa 0,0 l/m 0 min 0 min 0 W/m 9,7 km/h (2 Bft) 97,87 %
28.10.2022 01:02 17,6 C 16,7 C 13,3 C 90 % 1019,0 hPa 0,0 l/m 0 min 0 min 0 W/m 16,1 km/h (3 Bft) 95,74 %
28.10.2022 01:04 17,6 C 16,7 C 13,3 C 89 % 1019,0 hPa 0,0 l/m 0 min 0 min 0 W/m 6,4 km/h (2 Bft) 95,74 %
28.10.2022 01:06 17,6 C 16,7 C 13,3 C 89 % 1019,0 hPa 0,0 l/m 0 min 0 min 0 W/m 16,1 km/h (3 Bft) 93,48 %
28.10.2022 01:08 17,6 C 16,7 C 13,3 C 89 % 1019,0 hPa 0,0 l/m 0 min 0 min 0 W/m 16,1 km/h (3 Bft) 93,62 %
28.10.2022 01:10 17,6 C 16,7 C 13,3 C 89 % 1019,0 hPa 0,0 l/m 0 min 0 min 0 W/m 12,9 km/h (3 Bft) 95,74 %
28.10.2022 01:12 17,6 C 16,7 C 12,8 C 89 % 1019,0 hPa 0,0 l/m 0 min 0 min 0 W/m 9,7 km/h (2 Bft) 95,74 %
28.10.2022 01:14 17,6 C 16,7 C 12,8 C 89 % 1019,0 hPa 0,0 l/m 0 min 0 min 0 W/m 12,9 km/h (3 Bft) 93,62 %
28.10.2022 01:16 17,6 C 16,7 C 12,8 C 89 % 1019,0 hPa 0,0 l/m 0 min 0 min 0 W/m 12,9 km/h (3 Bft) 97,83 %
28.10.2022 01:18 17,6 C 16,7 C 12,8 C 89 % 1019,0 hPa 0,0 l/m 0 min 0 min 0 W/m 19,3 km/h (3 Bft) 97,87 %
28.10.2022 01:20 17,6 C 16,7 C 12,8 C 89 % 1019,0 hPa 0,0 l/m 0 min 0 min 0 W/m 6,4 km/h (2 Bft) 97,87 %
28.10.2022 01:22 17,6 C 16,7 C 12,8 C 89 % 1018,9 hPa 0,0 l/m 0 min 0 min 0 W/m 6,4 km/h (2 Bft) 95,74 %
28.10.2022 01:24 17,5 C 16,7 C 12,8 C 89 % 1018,9 hPa 0,0 l/m 0 min 0 min 0 W/m 9,7 km/h (2 Bft) 97,87 %
28.10.2022 01:26 17,5 C 16,7 C 12,8 C 89 % 1019,0 hPa 0,0 l/m 0 min 0 min 0 W/m 12,9 km/h (3 Bft) 95,74 %
28.10.2022 01:28 17,5 C 16,7 C 12,8 C 89 % 1018,9 hPa 0,0 l/m 0 min 0 min 0 W/m 16,1 km/h (3 Bft) 95,65 %
28.10.2022 01:30 17,5 C 16,7 C 12,8 C 89 % 1018,9 hPa 0,0 l/m 0 min 0 min 0 W/m 12,9 km/h (3 Bft) 97,87 %
28.10.2022 01:32 17,5 C 16,7 C 12,8 C 89 % 1018,9 hPa 0,0 l/m 0 min 0 min 0 W/m 12,9 km/h (3 Bft) 93,62 %
28.10.2022 01:34 17,4 C 16,7 C 12,8 C 89 % 1018,9 hPa 0,0 l/m 0 min 0 min 0 W/m 12,9 km/h (3 Bft) 97,87 %
28.10.2022 01:36 17,4 C 16,7 C 12,8 C 89 % 1018,9 hPa 0,0 l/m 0 min 0 min 0 W/m 12,9 km/h (3 Bft) 97,87 %
28.10.2022 01:38 17,4 C 16,7 C 12,8 C 89 % 1018,9 hPa 0,0 l/m 0 min 0 min 0 W/m 12,9 km/h (3 Bft) 100,00 %
28.10.2022 01:40 17,4 C 16,7 C 12,8 C 89 % 1018,8 hPa 0,0 l/m 0 min 0 min 0 W/m 9,7 km/h (2 Bft) 97,83 %
28.10.2022 01:42 17,4 C 16,7 C 12,8 C 89 % 1018,9 hPa 0,0 l/m 0 min 0 min 0 W/m 9,7 km/h (2 Bft) 93,62 %
28.10.2022 01:44 17,4 C 16,7 C 12,8 C 89 % 1018,8 hPa 0,0 l/m 0 min 0 min 0 W/m 9,7 km/h (2 Bft) 97,87 %
28.10.2022 01:46 17,4 C 16,7 C 12,8 C 89 % 1018,9 hPa 0,0 l/m 0 min 0 min 0 W/m 12,9 km/h (3 Bft) 100,00 %
28.10.2022 01:48 17,3 C 16,7 C 12,8 C 89 % 1018,9 hPa 0,0 l/m 0 min 0 min 0 W/m 12,9 km/h (3 Bft) 97,87 %
28.10.2022 01:50 17,3 C 16,7 C 12,8 C 89 % 1018,9 hPa 0,0 l/m 0 min 0 min 0 W/m 9,7 km/h (2 Bft) 97,87 %
28.10.2022 01:52 17,3 C 16,7 C 12,8 C 89 % 1018,9 hPa 0,0 l/m 0 min 0 min 0 W/m 12,9 km/h (3 Bft) 95,65 %
28.10.2022 01:54 17,4 C 16,7 C 12,8 C 90 % 1018,9 hPa 0,0 l/m 0 min 0 min 0 W/m 16,1 km/h (3 Bft) 97,87 %
28.10.2022 01:56 17,3 C 16,7 C 12,8 C 90 % 1018,9 hPa 0,0 l/m 0 min 0 min 0 W/m 12,9 km/h (3 Bft) 97,87 %
28.10.2022 01:58 17,4 C 16,7 C 12,8 C 90 % 1018,8 hPa 0,0 l/m 0 min 0 min 0 W/m 12,9 km/h (3 Bft) 97,87 %
28.10.2022 02:00 17,4 C 16,7 C 12,8 C 90 % 1018,8 hPa 0,0 l/m 0 min 0 min 0 W/m 12,9 km/h (3 Bft) 95,74 %
28.10.2022 02:02 17,4 C 16,7 C 12,8 C 89 % 1018,7 hPa 0,0 l/m 0 min 0 min 0 W/m 16,1 km/h (3 Bft) 95,74 %
28.10.2022 02:04 17,4 C 16,7 C 12,8 C 89 % 1018,7 hPa 0,0 l/m 0 min 0 min 0 W/m 12,9 km/h (3 Bft) 95,65 %
28.10.2022 02:06 17,4 C 16,7 C 12,8 C 89 % 1018,6 hPa 0,0 l/m 0 min 0 min 0 W/m 12,9 km/h (3 Bft) 97,87 %
28.10.2022 02:08 17,4 C 16,7 C 12,8 C 89 % 1018,7 hPa 0,0 l/m 0 min 0 min 0 W/m 12,9 km/h (3 Bft) 97,87 %
28.10.2022 02:10 17,4 C 16,7 C 12,8 C 89 % 1018,7 hPa 0,0 l/m 0 min 0 min 0 W/m 12,9 km/h (3 Bft) 97,87 %
28.10.2022 02:12 17,4 C 16,7 C 12,8 C 89 % 1018,7 hPa 0,0 l/m 0 min 0 min 0 W/m 9,7 km/h (2 Bft) 95,74 %
28.10.2022 02:14 17,4 C 16,7 C 12,8 C 89 % 1018,8 hPa 0,0 l/m 0 min 0 min 0 W/m 12,9 km/h (3 Bft) 97,87 %
28.10.2022 02:16 17,4 C 16,7 C 12,8 C 89 % 1018,8 hPa 0,0 l/m 0 min 0 min 0 W/m 12,9 km/h (3 Bft) 97,83 %
28.10.2022 02:18 17,5 C 16,7 C 12,8 C 89 % 1018,8 hPa 0,0 l/m 0 min 0 min 0 W/m 12,9 km/h (3 Bft) 95,74 %
28.10.2022 02:20 17,5 C 16,7 C 12,8 C 89 % 1018,8 hPa 0,0 l/m 0 min 0 min 0 W/m 19,3 km/h (3 Bft) 97,87 %
28.10.2022 02:22 17,5 C 16,7 C 12,8 C 89 % 1018,8 hPa 0,0 l/m 0 min 0 min 0 W/m 19,3 km/h (3 Bft) 97,14 %
28.10.2022 02:24 17,5 C 16,7 C 12,8 C 89 % 1018,9 hPa 0,0 l/m 0 min 0 min 0 W/m 12,9 km/h (3 Bft) 98,00 %
28.10.2022 02:26 17,5 C 16,7 C 12,8 C 89 % 1018,8 hPa 0,0 l/m 0 min 0 min 0 W/m 12,9 km/h (3 Bft) 97,87 %
28.10.2022 02:28 17,4 C 16,7 C 12,8 C 89 % 1018,8 hPa 0,0 l/m 0 min 0 min 0 W/m 6,4 km/h (2 Bft) 100,00 %
28.10.2022 02:30 17,4 C 16,7 C 12,8 C 89 % 1018,8 hPa 0,0 l/m 0 min 0 min 0 W/m 9,7 km/h (2 Bft) 95,65 %
28.10.2022 02:32 17,4 C 16,7 C 12,8 C 89 % 1018,7 hPa 0,0 l/m 0 min 0 min 0 W/m 9,7 km/h (2 Bft) 100,00 %
28.10.2022 02:34 17,4 C 16,7 C 12,8 C 89 % 1018,7 hPa 0,0 l/m 0 min 0 min 0 W/m 6,4 km/h (2 Bft) 97,87 %
28.10.2022 02:36 17,4 C 16,7 C 12,8 C 89 % 1018,6 hPa 0,0 l/m 0 min 0 min 0 W/m 12,9 km/h (3 Bft) 98,31 %
28.10.2022 02:38 17,4 C 16,7 C 12,8 C 89 % 1018,7 hPa 0,0 l/m 0 min 0 min 0 W/m 6,4 km/h (2 Bft) 97,14 %
28.10.2022 02:40 17,4 C 16,7 C 12,8 C 89 % 1018,7 hPa 0,0 l/m 0 min 0 min 0 W/m 16,1 km/h (3 Bft) 97,87 %
28.10.2022 02:42 17,4 C 16,7 C 12,8 C 89 % 1018,7 hPa 0,0 l/m 0 min 0 min 0 W/m 6,4 km/h (2 Bft) 97,83 %
28.10.2022 02:44 17,4 C 16,7 C 12,8 C 89 % 1018,7 hPa 0,0 l/m 0 min 0 min 0 W/m 6,4 km/h (2 Bft) 97,87 %
28.10.2022 02:46 17,4 C 16,7 C 12,8 C 89 % 1018,6 hPa 0,0 l/m 0 min 0 min 0 W/m 6,4 km/h (2 Bft) 97,87 %
28.10.2022 02:48 17,4 C 16,7 C 12,8 C 89 % 1018,7 hPa 0,0 l/m 0 min 0 min 0 W/m 6,4 km/h (2 Bft) 97,87 %
28.10.2022 02:50 17,4 C 16,7 C 12,8 C 89 % 1018,7 hPa 0,0 l/m 0 min 0 min 0 W/m 6,4 km/h (2 Bft) 95,74 %
28.10.2022 02:52 17,4 C 16,7 C 12,8 C 89 % 1018,7 hPa 0,0 l/m 0 min 0 min 0 W/m 6,4 km/h (2 Bft) 97,87 %
28.10.2022 02:54 17,4 C 16,7 C 12,8 C 89 % 1018,7 hPa 0,0 l/m 0 min 0 min 0 W/m 6,4 km/h (2 Bft) 97,83 %
28.10.2022 02:56 17,3 C 16,7 C 12,8 C 89 % 1018,8 hPa 0,0 l/m 0 min 0 min 0 W/m 6,4 km/h (2 Bft) 97,87 %
28.10.2022 02:58 17,4 C 16,7 C 12,8 C 89 % 1018,8 hPa 0,0 l/m 0 min 0 min 0 W/m 16,1 km/h (3 Bft) 97,87 %
28.10.2022 03:00 17,4 C 16,7 C 12,8 C 89 % 1018,8 hPa 0,0 l/m 0 min 0 min 0 W/m 6,4 km/h (2 Bft) 97,87 %
28.10.2022 03:02 17,4 C 16,7 C 12,8 C 89 % 1018,8 hPa 0,0 l/m 0 min 0 min 0 W/m 6,4 km/h (2 Bft) 95,74 %
28.10.2022 03:04 17,4 C 16,7 C 12,8 C 89 % 1018,8 hPa 0,0 l/m 0 min 0 min 0 W/m 6,4 km/h (2 Bft) 97,87 %
28.10.2022 03:06 17,4 C 16,7 C 12,8 C 89 % 1018,7 hPa 0,0 l/m 0 min 0 min 0 W/m 6,4 km/h (2 Bft) 94,83 %
28.10.2022 03:08 17,4 C 16,7 C 12,8 C 89 % 1018,7 hPa 0,0 l/m 0 min 0 min 0 W/m 6,4 km/h (2 Bft) 97,14 %
28.10.2022 03:10 17,3 C 16,1 C 12,8 C 89 % 1018,7 hPa 0,0 l/m 0 min 0 min 0 W/m 6,4 km/h (2 Bft) 100,00 %
28.10.2022 03:12 17,3 C 16,1 C 12,8 C 89 % 1018,7 hPa 0,0 l/m 0 min 0 min 0 W/m 6,4 km/h (2 Bft) 97,87 %
28.10.2022 03:14 17,3 C 16,1 C 12,8 C 89 % 1018,7 hPa 0,0 l/m 0 min 0 min 0 W/m 6,4 km/h (2 Bft) 100,00 %
28.10.2022 03:16 17,3 C 16,1 C 12,8 C 89 % 1018,6 hPa 0,0 l/m 0 min 0 min 0 W/m 3,2 km/h (1 Bft) 97,87 %
28.10.2022 03:18 17,3 C 16,1 C 12,8 C 89 % 1018,6 hPa 0,0 l/m 0 min 0 min 0 W/m 12,9 km/h (3 Bft) 95,65 %
28.10.2022 03:20 17,3 C 16,1 C 12,8 C 89 % 1018,6 hPa 0,0 l/m 0 min 0 min 0 W/m 6,4 km/h (2 Bft) 100,00 %
28.10.2022 03:22 17,3 C 16,1 C 12,8 C 89 % 1018,7 hPa 0,0 l/m 0 min 0 min 0 W/m 12,9 km/h (3 Bft) 100,00 %
28.10.2022 03:24 17,3 C 16,1 C 12,8 C 89 % 1018,7 hPa 0,0 l/m 0 min 0 min 0 W/m 6,4 km/h (2 Bft) 100,00 %
28.10.2022 03:26 17,3 C 16,7 C 12,8 C 89 % 1018,7 hPa 0,0 l/m 0 min 0 min 0 W/m 6,4 km/h (2 Bft) 100,00 %
28.10.2022 03:28 17,3 C 16,7 C 12,8 C 89 % 1018,6 hPa 0,0 l/m 0 min 0 min 0 W/m 6,4 km/h (2 Bft) 97,87 %
28.10.2022 03:30 17,3 C 16,7 C 12,8 C 89 % 1018,7 hPa 0,0 l/m 0 min 0 min 0 W/m 12,9 km/h (3 Bft) 97,83 %
28.10.2022 03:32 17,3 C 16,7 C 12,8 C 89 % 1018,7 hPa 0,0 l/m 0 min 0 min 0 W/m 12,9 km/h (3 Bft) 100,00 %
28.10.2022 03:34 17,3 C 16,7 C 12,8 C 89 % 1018,6 hPa 0,0 l/m 0 min 0 min 0 W/m 6,4 km/h (2 Bft) 100,00 %
28.10.2022 03:36 17,3 C 16,7 C 12,8 C 89 % 1018,7 hPa 0,0 l/m 0 min 0 min 0 W/m 12,9 km/h (3 Bft) 98,31 %
28.10.2022 03:38 17,3 C 16,7 C 12,8 C 89 % 1018,7 hPa 0,0 l/m 0 min 0 min 0 W/m 12,9 km/h (3 Bft) 97,14 %
28.10.2022 03:40 17,3 C 16,7 C 12,8 C 89 % 1018,6 hPa 0,0 l/m 0 min 0 min 0 W/m 6,4 km/h (2 Bft) 97,87 %
28.10.2022 03:42 17,3 C 16,7 C 12,8 C 89 % 1018,7 hPa 0,0 l/m 0 min 0 min 0 W/m 6,4 km/h (2 Bft) 97,83 %
28.10.2022 03:44 17,3 C 16,7 C 12,8 C 89 % 1018,7 hPa 0,0 l/m 0 min 0 min 0 W/m 6,4 km/h (2 Bft) 97,87 %
28.10.2022 03:46 17,3 C 16,7 C 12,8 C 89 % 1018,7 hPa 0,0 l/m 0 min 0 min 0 W/m 6,4 km/h (2 Bft) 97,87 %
28.10.2022 03:48 17,3 C 16,1 C 12,8 C 89 % 1018,7 hPa 0,0 l/m 0 min 0 min 0 W/m 12,9 km/h (3 Bft) 95,74 %
28.10.2022 03:50 17,3 C 16,1 C 12,8 C 89 % 1018,7 hPa 0,0 l/m 0 min 0 min 0 W/m 6,4 km/h (2 Bft) 97,87 %
28.10.2022 03:52 17,2 C 16,1 C 12,8 C 89 % 1018,6 hPa 0,0 l/m 0 min 0 min 0 W/m 12,9 km/h (3 Bft) 97,87 %
28.10.2022 03:54 17,2 C 16,1 C 12,8 C 89 % 1018,6 hPa 0,0 l/m 0 min 0 min 0 W/m 16,1 km/h (3 Bft) 97,83 %
28.10.2022 03:56 17,2 C 16,1 C 12,8 C 89 % 1018,6 hPa 0,0 l/m 0 min 0 min 0 W/m 6,4 km/h (2 Bft) 97,87 %
28.10.2022 03:58 17,2 C 16,1 C 12,8 C 89 % 1018,5 hPa 0,0 l/m 0 min 0 min 0 W/m 6,4 km/h (2 Bft) 97,87 %
28.10.2022 04:00 17,2 C 16,1 C 12,8 C 89 % 1018,5 hPa 0,0 l/m 0 min 0 min 0 W/m 6,4 km/h (2 Bft) 95,74 %
28.10.2022 04:02 17,2 C 16,1 C 12,8 C 89 % 1018,5 hPa 0,0 l/m 0 min 0 min 0 W/m 12,9 km/h (3 Bft) 90,00 %
28.10.2022 04:04 17,2 C 16,1 C 12,8 C 89 % 1018,4 hPa 0,0 l/m 0 min 0 min 0 W/m 6,4 km/h (2 Bft) 91,49 %
28.10.2022 04:06 17,1 C 16,1 C 12,8 C 89 % 1018,4 hPa 0,0 l/m 0 min 0 min 0 W/m 12,9 km/h (3 Bft) 98,28 %
28.10.2022 04:08 17,1 C 16,1 C 12,8 C 89 % 1018,3 hPa 0,0 l/m 0 min 0 min 0 W/m 19,3 km/h (3 Bft) 97,14 %
28.10.2022 04:10 17,1 C 16,1 C 12,8 C 89 % 1018,3 hPa 0,0 l/m 0 min 0 min 0 W/m 12,9 km/h (3 Bft) 100,00 %
28.10.2022 04:12 17,1 C 16,1 C 12,8 C 89 % 1018,3 hPa 0,0 l/m 0 min 0 min 0 W/m 9,7 km/h (2 Bft) 97,87 %
28.10.2022 04:14 17,1 C 16,1 C 12,8 C 89 % 1018,2 hPa 0,0 l/m 0 min 0 min 0 W/m 12,9 km/h (3 Bft) 97,87 %
28.10.2022 04:16 17,1 C 16,1 C 12,8 C 89 % 1018,2 hPa 0,0 l/m 0 min 0 min 0 W/m 19,3 km/h (3 Bft) 97,87 %
28.10.2022 04:18 17,1 C 16,1 C 12,8 C 89 % 1018,2 hPa 0,0 l/m 0 min 0 min 0 W/m 19,3 km/h (3 Bft) 97,83 %
28.10.2022 04:20 17,1 C 16,1 C 12,8 C 89 % 1018,3 hPa 0,0 l/m 0 min 0 min 0 W/m 12,9 km/h (3 Bft) 97,87 %
28.10.2022 04:22 17,1 C 16,1 C 12,8 C 89 % 1018,3 hPa 0,0 l/m 0 min 0 min 0 W/m 16,1 km/h (3 Bft) 95,74 %
28.10.2022 04:24 17,1 C 16,1 C 12,8 C 89 % 1018,3 hPa 0,0 l/m 0 min 0 min 0 W/m 12,9 km/h (3 Bft) 97,87 %
28.10.2022 04:26 17,1 C 16,1 C 12,8 C 89 % 1018,2 hPa 0,0 l/m 0 min 0 min 0 W/m 6,4 km/h (2 Bft) 100,00 %
28.10.2022 04:28 17,0 C 16,1 C 12,8 C 89 % 1018,3 hPa 0,0 l/m 0 min 0 min 0 W/m 6,4 km/h (2 Bft) 97,87 %
28.10.2022 04:30 17,0 C 16,1 C 12,2 C 89 % 1018,2 hPa 0,0 l/m 0 min 0 min 0 W/m 16,1 km/h (3 Bft) 97,83 %
28.10.2022 04:32 17,0 C 16,1 C 12,2 C 89 % 1018,2 hPa 0,0 l/m 0 min 0 min 0 W/m 19,3 km/h (3 Bft) 93,62 %
28.10.2022 04:34 16,9 C 16,1 C 12,2 C 89 % 1018,3 hPa 0,0 l/m 0 min 0 min 0 W/m 19,3 km/h (3 Bft) 95,74 %
28.10.2022 04:36 16,9 C 16,1 C 12,8 C 89 % 1018,2 hPa 0,0 l/m 0 min 0 min 0 W/m 19,3 km/h (3 Bft) 94,92 %
28.10.2022 04:38 16,9 C 16,1 C 12,8 C 89 % 1018,2 hPa 0,0 l/m 0 min 0 min 0 W/m 22,5 km/h (4 Bft) 97,14 %
28.10.2022 04:40 16,9 C 16,1 C 12,8 C 89 % 1018,2 hPa 0,0 l/m 0 min 0 min 0 W/m 9,7 km/h (2 Bft) 93,62 %
28.10.2022 04:42 16,9 C 16,1 C 12,8 C 89 % 1018,2 hPa 0,0 l/m 0 min 0 min 0 W/m 12,9 km/h (3 Bft) 95,65 %
28.10.2022 04:44 16,9 C 16,1 C 12,2 C 89 % 1018,1 hPa 0,0 l/m 0 min 0 min 0 W/m 6,4 km/h (2 Bft) 95,74 %
28.10.2022 04:46 16,9 C 16,1 C 12,2 C 89 % 1018,2 hPa 0,0 l/m 0 min 0 min 0 W/m 16,1 km/h (3 Bft) 95,74 %
28.10.2022 04:48 16,9 C 16,1 C 12,2 C 89 % 1018,1 hPa 0,0 l/m 0 min 0 min 0 W/m 12,9 km/h (3 Bft) 95,74 %
28.10.2022 04:50 16,9 C 16,1 C 12,2 C 89 % 1018,2 hPa 0,0 l/m 0 min 0 min 0 W/m 19,3 km/h (3 Bft) 97,87 %
28.10.2022 04:52 16,9 C 16,1 C 12,2 C 89 % 1018,2 hPa 0,0 l/m 0 min 0 min 0 W/m 16,1 km/h (3 Bft) 95,74 %
28.10.2022 04:54 16,9 C 16,1 C 12,2 C 89 % 1018,2 hPa 0,0 l/m 0 min 0 min 0 W/m 12,9 km/h (3 Bft) 95,65 %
28.10.2022 04:56 16,9 C 16,1 C 12,2 C 89 % 1018,2 hPa 0,0 l/m 0 min 0 min 0 W/m 9,7 km/h (2 Bft) 95,74 %
28.10.2022 04:58 16,9 C 16,1 C 12,2 C 89 % 1018,2 hPa 0,0 l/m 0 min 0 min 0 W/m 6,4 km/h (2 Bft) 93,62 %
28.10.2022 05:00 16,8 C 15,6 C 12,2 C 89 % 1018,2 hPa 0,0 l/m 0 min 0 min 0 W/m 6,4 km/h (2 Bft) 97,87 %
28.10.2022 05:02 16,8 C 15,6 C 12,2 C 89 % 1018,1 hPa 0,0 l/m 0 min 0 min 0 W/m 6,4 km/h (2 Bft) 93,62 %
28.10.2022 05:04 16,8 C 15,6 C 12,2 C 89 % 1018,0 hPa 0,0 l/m 0 min 0 min 0 W/m 3,2 km/h (1 Bft) 95,65 %
28.10.2022 05:06 16,8 C 15,6 C 12,2 C 89 % 1018,1 hPa 0,0 l/m 0 min 0 min 0 W/m 6,4 km/h (2 Bft) 98,31 %
28.10.2022 05:08 16,7 C 15,6 C 12,2 C 89 % 1018,0 hPa 0,0 l/m 0 min 0 min 0 W/m 3,2 km/h (1 Bft) 94,29 %
28.10.2022 05:10 16,7 C 15,6 C 12,2 C 90 % 1018,0 hPa 0,0 l/m 0 min 0 min 0 W/m 16,1 km/h (3 Bft) 95,74 %
28.10.2022 05:12 16,7 C 15,6 C 12,2 C 89 % 1018,0 hPa 0,0 l/m 0 min 0 min 0 W/m 12,9 km/h (3 Bft) 95,74 %
28.10.2022 05:14 16,7 C 15,6 C 12,2 C 90 % 1018,0 hPa 0,0 l/m 0 min 0 min 0 W/m 12,9 km/h (3 Bft) 95,74 %
28.10.2022 05:16 16,6 C 15,6 C 12,2 C 90 % 1018,0 hPa 0,0 l/m 0 min 0 min 0 W/m 12,9 km/h (3 Bft) 95,65 %
28.10.2022 05:18 16,6 C 15,6 C 12,2 C 90 % 1017,9 hPa 0,0 l/m 0 min 0 min 0 W/m 12,9 km/h (3 Bft) 100,00 %
28.10.2022 05:20 16,6 C 15,6 C 12,2 C 90 % 1017,9 hPa 0,0 l/m 0 min 0 min 0 W/m 6,4 km/h (2 Bft) 97,87 %
28.10.2022 05:22 16,6 C 15,6 C 12,2 C 90 % 1017,9 hPa 0,0 l/m 0 min 0 min 0 W/m 6,4 km/h (2 Bft) 97,87 %
28.10.2022 05:24 16,6 C 15,6 C 11,7 C 90 % 1017,9 hPa 0,0 l/m 0 min 0 min 0 W/m 6,4 km/h (2 Bft) 100,00 %
28.10.2022 05:26 16,5 C 15,6 C 11,7 C 90 % 1017,9 hPa 0,0 l/m 0 min 0 min 0 W/m 6,4 km/h (2 Bft) 97,87 %
28.10.2022 05:28 16,5 C 15,6 C 11,7 C 90 % 1017,9 hPa 0,0 l/m 0 min 0 min 0 W/m 6,4 km/h (2 Bft) 100,00 %
28.10.2022 05:30 16,4 C 15,6 C 11,7 C 90 % 1017,9 hPa 0,0 l/m 0 min 0 min 0 W/m 6,4 km/h (2 Bft) 95,74 %
28.10.2022 05:32 16,4 C 15,6 C 11,7 C 90 % 1017,9 hPa 0,0 l/m 0 min 0 min 0 W/m 6,4 km/h (2 Bft) 100,00 %
28.10.2022 05:34 16,4 C 15,6 C 11,7 C 90 % 1017,8 hPa 0,0 l/m 0 min 0 min 0 W/m 6,4 km/h (2 Bft) 100,00 %
28.10.2022 05:36 16,3 C 15,0 C 11,7 C 90 % 1017,9 hPa 0,0 l/m 0 min 0 min 0 W/m 9,7 km/h (2 Bft) 97,87 %
28.10.2022 05:38 16,3 C 15,0 C 11,7 C 90 % 1017,9 hPa 0,0 l/m 0 min 0 min 0 W/m 3,2 km/h (1 Bft) 100,00 %
28.10.2022 05:40 16,3 C 15,0 C 11,7 C 90 % 1017,9 hPa 0,0 l/m 0 min 0 min 0 W/m 6,4 km/h (2 Bft) 100,00 %
28.10.2022 05:42 16,3 C 15,0 C 11,7 C 90 % 1017,8 hPa 0,0 l/m 0 min 0 min 0 W/m 6,4 km/h (2 Bft) 97,83 %
28.10.2022 05:44 16,3 C 15,0 C 11,7 C 90 % 1017,8 hPa 0,0 l/m 0 min 0 min 0 W/m 6,4 km/h (2 Bft) 100,00 %
28.10.2022 05:46 16,2 C 15,0 C 11,7 C 90 % 1017,8 hPa 0,0 l/m 0 min 0 min 0 W/m 12,9 km/h (3 Bft) 100,00 %
28.10.2022 05:48 16,2 C 15,0 C 11,7 C 90 % 1017,8 hPa 0,0 l/m 0 min 0 min 0 W/m 12,9 km/h (3 Bft) 100,00 %
28.10.2022 05:50 16,2 C 15,0 C 11,7 C 91 % 1017,8 hPa 0,0 l/m 0 min 0 min 0 W/m 16,1 km/h (3 Bft) 97,87 %
28.10.2022 05:52 16,2 C 15,0 C 11,7 C 91 % 1017,8 hPa 0,0 l/m 0 min 0 min 0 W/m 12,9 km/h (3 Bft) 100,00 %
28.10.2022 05:54 16,2 C 15,6 C 11,7 C 91 % 1017,8 hPa 0,0 l/m 0 min 0 min 0 W/m 19,3 km/h (3 Bft) 100,00 %
28.10.2022 05:56 16,2 C 15,6 C 11,7 C 91 % 1017,8 hPa 0,0 l/m 0 min 0 min 0 W/m 16,1 km/h (3 Bft) 100,00 %
28.10.2022 05:58 16,2 C 15,6 C 12,2 C 91 % 1017,8 hPa 0,0 l/m 0 min 0 min 0 W/m 9,7 km/h (2 Bft) 100,00 %
28.10.2022 06:00 16,2 C 15,6 C 11,7 C 91 % 1017,8 hPa 0,0 l/m 0 min 0 min 0 W/m 6,4 km/h (2 Bft) 100,00 %
28.10.2022 06:02 16,2 C 15,6 C 12,2 C 91 % 1017,8 hPa 0,0 l/m 0 min 0 min 0 W/m 12,9 km/h (3 Bft) 100,00 %
28.10.2022 06:04 16,2 C 15,6 C 12,2 C 91 % 1017,8 hPa 0,0 l/m 0 min 0 min 0 W/m 6,4 km/h (2 Bft) 100,00 %
28.10.2022 06:08 16,3 C 15,6 C 12,2 C 91 % 1017,8 hPa 0,0 l/m 0 min 0 min 0 W/m 12,9 km/h (3 Bft) 98,98 %
28.10.2022 06:10 16,3 C 15,6 C 11,7 C 91 % 1017,7 hPa 0,0 l/m 0 min 0 min 0 W/m 12,9 km/h (3 Bft) 100,00 %
28.10.2022 06:12 16,2 C 15,6 C 12,2 C 91 % 1017,9 hPa 0,0 l/m 0 min 0 min 0 W/m 12,9 km/h (3 Bft) 97,56 %
28.10.2022 06:14 16,3 C 15,6 C 12,2 C 91 % 1017,8 hPa 0,0 l/m 0 min 0 min 0 W/m 6,4 km/h (2 Bft) 97,87 %
28.10.2022 06:16 16,3 C 15,6 C 12,2 C 91 % 1017,9 hPa 0,0 l/m 0 min 0 min 0 W/m 6,4 km/h (2 Bft) 97,83 %
28.10.2022 06:18 16,3 C 15,6 C 12,2 C 91 % 1017,9 hPa 0,0 l/m 0 min 0 min 0 W/m 9,7 km/h (2 Bft) 100,00 %
28.10.2022 06:20 16,3 C 15,6 C 12,2 C 91 % 1018,0 hPa 0,0 l/m 0 min 0 min 0 W/m 6,4 km/h (2 Bft) 100,00 %
28.10.2022 06:22 16,3 C 15,6 C 12,2 C 91 % 1018,0 hPa 0,0 l/m 0 min 0 min 0 W/m 6,4 km/h (2 Bft) 97,87 %
28.10.2022 06:24 16,3 C 15,6 C 11,7 C 91 % 1018,0 hPa 0,0 l/m 0 min 0 min 0 W/m 6,4 km/h (2 Bft) 100,00 %
28.10.2022 06:26 16,3 C 15,6 C 11,7 C 90 % 1017,9 hPa 0,0 l/m 0 min 0 min 0 W/m 6,4 km/h (2 Bft) 93,62 %
28.10.2022 06:28 16,2 C 15,6 C 11,7 C 90 % 1017,9 hPa 0,0 l/m 0 min 0 min 0 W/m 9,7 km/h (2 Bft) 97,83 %
28.10.2022 06:30 16,2 C 15,6 C 11,7 C 90 % 1017,9 hPa 0,0 l/m 0 min 0 min 0 W/m 12,9 km/h (3 Bft) 97,87 %
28.10.2022 06:32 16,2 C 15,6 C 11,7 C 90 % 1017,9 hPa 0,0 l/m 0 min 0 min 0 W/m 6,4 km/h (2 Bft) 91,49 %
28.10.2022 06:34 16,2 C 15,6 C 11,7 C 90 % 1017,9 hPa 0,0 l/m 0 min 0 min 0 W/m 12,9 km/h (3 Bft) 95,74 %
28.10.2022 06:36 16,2 C 15,6 C 11,7 C 91 % 1017,9 hPa 0,0 l/m 0 min 0 min 0 W/m 12,9 km/h (3 Bft) 94,92 %
28.10.2022 06:38 16,2 C 15,6 C 11,7 C 91 % 1017,9 hPa 0,0 l/m 0 min 0 min 0 W/m 6,4 km/h (2 Bft) 94,29 %
28.10.2022 06:40 16,2 C 15,6 C 11,7 C 91 % 1017,9 hPa 0,0 l/m 0 min 0 min 0 W/m 6,4 km/h (2 Bft) 95,74 %
28.10.2022 06:42 16,2 C 15,0 C 11,7 C 91 % 1018,0 hPa 0,0 l/m 0 min 0 min 0 W/m 3,2 km/h (1 Bft) 47,62 %
28.10.2022 06:44 16,2 C 15,0 C 11,7 C 91 % 1017,9 hPa 0,0 l/m 0 min 0 min 0 W/m 6,4 km/h (2 Bft) 95,74 %
28.10.2022 06:46 16,2 C 15,0 C 11,7 C 91 % 1018,0 hPa 0,0 l/m 0 min 0 min 0 W/m 9,7 km/h (2 Bft) 93,62 %
28.10.2022 06:48 16,1 C 15,0 C 11,7 C 91 % 1018,0 hPa 0,0 l/m 0 min 0 min 0 W/m 6,4 km/h (2 Bft) 93,62 %
28.10.2022 06:50 16,1 C 15,0 C 11,7 C 91 % 1018,0 hPa 0,0 l/m 0 min 0 min 0 W/m 6,4 km/h (2 Bft) 95,74 %
28.10.2022 06:52 16,1 C 15,0 C 11,7 C 91 % 1017,9 hPa 0,0 l/m 0 min 0 min 0 W/m 6,4 km/h (2 Bft) 95,65 %
28.10.2022 06:54 16,1 C 15,0 C 11,7 C 91 % 1017,9 hPa 0,0 l/m 0 min 0 min 0 W/m 6,4 km/h (2 Bft) 95,74 %
28.10.2022 06:56 16,1 C 15,0 C 11,7 C 91 % 1017,9 hPa 0,0 l/m 0 min 0 min 0 W/m 6,4 km/h (2 Bft) 95,74 %
28.10.2022 06:58 16,1 C 15,0 C 11,7 C 91 % 1017,9 hPa 0,0 l/m 0 min 0 min 0 W/m 12,9 km/h (3 Bft) 97,87 %
28.10.2022 07:00 16,1 C 15,0 C 11,7 C 91 % 1018,0 hPa 0,0 l/m 0 min 0 min 0 W/m 16,1 km/h (3 Bft) 97,87 %
28.10.2022 07:02 16,1 C 15,6 C 11,7 C 91 % 1018,1 hPa 0,0 l/m 0 min 0 min 0 W/m 16,1 km/h (3 Bft) 97,87 %
28.10.2022 07:04 16,1 C 15,6 C 11,7 C 91 % 1018,0 hPa 0,0 l/m 0 min 0 min 0 W/m 12,9 km/h (3 Bft) 97,83 %
28.10.2022 07:06 16,1 C 15,6 C 11,7 C 91 % 1018,0 hPa 0,0 l/m 0 min 0 min 0 W/m 12,9 km/h (3 Bft) 96,61 %
28.10.2022 07:08 16,1 C 15,6 C 11,7 C 91 % 1018,0 hPa 0,0 l/m 0 min 0 min 0 W/m 12,9 km/h (3 Bft) 97,14 %
28.10.2022 07:10 16,1 C 15,6 C 12,2 C 91 % 1018,0 hPa 0,0 l/m 0 min 0 min 0 W/m 16,1 km/h (3 Bft) 97,87 %
28.10.2022 07:12 16,2 C 15,6 C 12,2 C 91 % 1018,0 hPa 0,0 l/m 0 min 0 min 0 W/m 12,9 km/h (3 Bft) 97,87 %
28.10.2022 07:14 16,2 C 15,6 C 12,2 C 91 % 1018,0 hPa 0,0 l/m 0 min 0 min 0 W/m 12,9 km/h (3 Bft) 100,00 %
28.10.2022 07:16 16,2 C 15,6 C 12,2 C 91 % 1017,9 hPa 0,0 l/m 0 min 0 min 0 W/m 12,9 km/h (3 Bft) 97,83 %
28.10.2022 07:18 16,2 C 15,6 C 12,2 C 91 % 1018,0 hPa 0,0 l/m 0 min 0 min 0 W/m 6,4 km/h (2 Bft) 97,87 %
28.10.2022 07:20 16,2 C 15,6 C 12,2 C 90 % 1017,9 hPa 0,0 l/m 0 min 0 min 0 W/m 3,2 km/h (1 Bft) 100,00 %
28.10.2022 07:22 16,2 C 15,6 C 12,2 C 90 % 1017,9 hPa 0,0 l/m 0 min 0 min 0 W/m 6,4 km/h (2 Bft) 97,87 %
28.10.2022 07:24 16,2 C 15,6 C 12,2 C 90 % 1018,0 hPa 0,0 l/m 0 min 0 min 0 W/m 6,4 km/h (2 Bft) 97,87 %
28.10.2022 07:26 16,3 C 15,6 C 12,2 C 90 % 1018,0 hPa 0,0 l/m 0 min 0 min 0 W/m 12,9 km/h (3 Bft) 97,87 %
28.10.2022 07:28 16,2 C 15,6 C 12,2 C 90 % 1018,0 hPa 0,0 l/m 0 min 0 min 0 W/m 9,7 km/h (2 Bft) 97,87 %
28.10.2022 07:30 16,3 C 15,6 C 12,2 C 90 % 1018,0 hPa 0,0 l/m 0 min 0 min 0 W/m 6,4 km/h (2 Bft) 93,48 %
28.10.2022 07:32 16,3 C 15,6 C 12,2 C 90 % 1018,0 hPa 0,0 l/m 0 min 0 min 0 W/m 6,4 km/h (2 Bft) 97,87 %
28.10.2022 07:34 16,3 C 15,6 C 12,2 C 90 % 1017,9 hPa 0,0 l/m 0 min 0 min 0 W/m 6,4 km/h (2 Bft) 93,62 %
28.10.2022 07:36 16,3 C 15,6 C 11,7 C 90 % 1018,0 hPa 0,0 l/m 0 min 0 min 0 W/m 6,4 km/h (2 Bft) 98,28 %
28.10.2022 07:38 16,3 C 15,6 C 11,7 C 90 % 1018,0 hPa 0,0 l/m 0 min 0 min 0 W/m 3,2 km/h (1 Bft) 97,22 %
28.10.2022 07:40 16,2 C 15,6 C 11,7 C 90 % 1018,0 hPa 0,0 l/m 0 min 0 min 0 W/m 6,4 km/h (2 Bft) 97,87 %
28.10.2022 07:42 16,2 C 15,6 C 11,7 C 90 % 1018,0 hPa 0,0 l/m 0 min 0 min 0 W/m 9,7 km/h (2 Bft) 97,83 %
28.10.2022 07:44 16,2 C 15,6 C 11,7 C 90 % 1017,9 hPa 0,0 l/m 0 min 0 min 0 W/m 6,4 km/h (2 Bft) 97,87 %
28.10.2022 07:46 16,2 C 15,6 C 11,7 C 90 % 1018,0 hPa 0,0 l/m 0 min 0 min 0 W/m 12,9 km/h (3 Bft) 97,87 %
28.10.2022 07:48 16,2 C 15,6 C 11,7 C 90 % 1017,9 hPa 0,0 l/m 0 min 0 min 0 W/m 3,2 km/h (1 Bft) 97,87 %
28.10.2022 07:50 16,2 C 15,6 C 11,7 C 90 % 1017,9 hPa 0,0 l/m 0 min 0 min 0 W/m 3,2 km/h (1 Bft) 95,74 %
28.10.2022 07:52 16,2 C 15,6 C 11,7 C 90 % 1017,9 hPa 0,0 l/m 0 min 0 min 0 W/m 6,4 km/h (2 Bft) 95,65 %
28.10.2022 07:54 16,2 C 15,6 C 11,7 C 90 % 1017,8 hPa 0,0 l/m 0 min 0 min 0 W/m 6,4 km/h (2 Bft) 95,74 %
28.10.2022 07:56 16,2 C 15,6 C 11,7 C 90 % 1017,9 hPa 0,0 l/m 0 min 0 min 0 W/m 12,9 km/h (3 Bft) 97,87 %
28.10.2022 07:58 16,2 C 15,6 C 11,7 C 90 % 1017,9 hPa 0,0 l/m 0 min 0 min 0 W/m 9,7 km/h (2 Bft) 95,74 %
28.10.2022 08:00 16,2 C 15,6 C 11,7 C 90 % 1017,9 hPa 0,0 l/m 0 min 0 min 0 W/m 6,4 km/h (2 Bft) 97,87 %
28.10.2022 08:02 16,2 C 15,6 C 12,2 C 90 % 1017,9 hPa 0,0 l/m 0 min 0 min 0 W/m 12,9 km/h (3 Bft) 97,87 %
28.10.2022 08:04 16,2 C 15,6 C 12,2 C 90 % 1018,0 hPa 0,0 l/m 0 min 0 min 0 W/m 16,1 km/h (3 Bft) 97,83 %
28.10.2022 08:06 16,2 C 15,6 C 12,2 C 90 % 1018,0 hPa 0,0 l/m 0 min 0 min 0 W/m 16,1 km/h (3 Bft) 96,61 %
28.10.2022 08:08 16,2 C 15,6 C 12,2 C 90 % 1018,0 hPa 0,0 l/m 0 min 0 min 0 W/m 6,4 km/h (2 Bft) 91,43 %
28.10.2022 08:10 16,3 C 15,6 C 12,2 C 90 % 1018,0 hPa 0,0 l/m 0 min 0 min 0 W/m 16,1 km/h (3 Bft) 97,87 %
28.10.2022 08:12 16,3 C 15,6 C 12,2 C 90 % 1018,0 hPa 0,0 l/m 0 min 0 min 0 W/m 16,1 km/h (3 Bft) 100,00 %
28.10.2022 08:14 16,3 C 15,6 C 12,2 C 90 % 1018,0 hPa 0,0 l/m 0 min 0 min 0 W/m 19,3 km/h (3 Bft) 100,00 %
28.10.2022 08:16 16,3 C 15,6 C 12,2 C 90 % 1018,0 hPa 0,0 l/m 0 min 0 min 0 W/m 12,9 km/h (3 Bft) 100,00 %
28.10.2022 08:18 16,3 C 15,6 C 12,2 C 90 % 1018,0 hPa 0,0 l/m 0 min 0 min 0 W/m 12,9 km/h (3 Bft) 98,31 %
28.10.2022 08:20 16,3 C 15,6 C 12,2 C 90 % 1018,0 hPa 0,0 l/m 0 min 0 min 0 W/m 12,9 km/h (3 Bft) 93,62 %
28.10.2022 08:22 16,3 C 15,6 C 12,2 C 90 % 1017,9 hPa 0,0 l/m 0 min 0 min 4 W/m 12,9 km/h (3 Bft) 95,74 %
28.10.2022 08:24 16,3 C 15,6 C 12,2 C 90 % 1018,0 hPa 0,0 l/m 0 min 0 min 5 W/m 16,1 km/h (3 Bft) 97,83 %
28.10.2022 08:26 16,3 C 15,6 C 12,2 C 90 % 1018,0 hPa 0,0 l/m 0 min 0 min 5 W/m 12,9 km/h (3 Bft) 97,87 %
28.10.2022 08:28 16,3 C 15,6 C 12,2 C 90 % 1018,0 hPa 0,0 l/m 0 min 0 min 5 W/m 6,4 km/h (2 Bft) 95,74 %
28.10.2022 08:30 16,3 C 15,6 C 12,2 C 90 % 1018,1 hPa 0,0 l/m 0 min 0 min 7 W/m 6,4 km/h (2 Bft) 95,74 %
28.10.2022 08:32 16,3 C 15,6 C 12,2 C 90 % 1018,0 hPa 0,0 l/m 0 min 0 min 8 W/m 19,3 km/h (3 Bft) 95,74 %
28.10.2022 08:34 16,3 C 15,6 C 11,7 C 90 % 1018,2 hPa 0,0 l/m 0 min 0 min 10 W/m 6,4 km/h (2 Bft) 97,87 %
28.10.2022 08:36 16,3 C 15,6 C 11,7 C 90 % 1018,1 hPa 0,0 l/m 0 min 0 min 11 W/m 16,1 km/h (3 Bft) 97,87 %
28.10.2022 08:38 16,3 C 15,6 C 11,7 C 90 % 1018,1 hPa 0,0 l/m 0 min 0 min 12 W/m 12,9 km/h (3 Bft) 95,65 %
28.10.2022 08:40 16,3 C 15,6 C 11,7 C 90 % 1018,1 hPa 0,0 l/m 0 min 0 min 14 W/m 6,4 km/h (2 Bft) 97,87 %
28.10.2022 08:42 16,2 C 15,6 C 11,7 C 90 % 1018,1 hPa 0,0 l/m 0 min 0 min 16 W/m 9,7 km/h (2 Bft) 93,62 %
28.10.2022 08:44 16,2 C 15,6 C 11,7 C 90 % 1018,2 hPa 0,0 l/m 0 min 0 min 17 W/m 6,4 km/h (2 Bft) 97,87 %
28.10.2022 08:46 16,2 C 15,6 C 11,7 C 90 % 1018,3 hPa 0,0 l/m 0 min 0 min 19 W/m 6,4 km/h (2 Bft) 97,87 %
28.10.2022 08:48 16,2 C 15,6 C 11,7 C 90 % 1018,2 hPa 0,0 l/m 0 min 0 min 21 W/m 12,9 km/h (3 Bft) 97,83 %
28.10.2022 08:50 16,2 C 15,6 C 11,7 C 90 % 1018,2 hPa 0,0 l/m 0 min 0 min 24 W/m 12,9 km/h (3 Bft) 97,87 %
28.10.2022 08:52 16,2 C 15,6 C 11,7 C 90 % 1018,2 hPa 0,0 l/m 0 min 0 min 26 W/m 12,9 km/h (3 Bft) 97,87 %
28.10.2022 08:54 16,2 C 15,6 C 11,7 C 90 % 1018,1 hPa 0,0 l/m 0 min 0 min 28 W/m 16,1 km/h (3 Bft) 100,00 %
28.10.2022 08:56 16,2 C 15,6 C 11,7 C 90 % 1018,2 hPa 0,0 l/m 0 min 0 min 29 W/m 9,7 km/h (2 Bft) 100,00 %
28.10.2022 08:58 16,2 C 15,6 C 11,7 C 90 % 1018,2 hPa 0,0 l/m 0 min 0 min 32 W/m 12,9 km/h (3 Bft) 100,00 %
28.10.2022 09:00 16,2 C 15,6 C 12,2 C 90 % 1018,2 hPa 0,0 l/m 0 min 0 min 33 W/m 12,9 km/h (3 Bft) 97,83 %
28.10.2022 09:02 16,2 C 15,6 C 12,2 C 90 % 1018,3 hPa 0,0 l/m 0 min 0 min 34 W/m 6,4 km/h (2 Bft) 95,74 %
28.10.2022 09:04 16,2 C 15,6 C 12,2 C 90 % 1018,2 hPa 0,0 l/m 0 min 0 min 37 W/m 6,4 km/h (2 Bft) 97,87 %
28.10.2022 09:06 16,2 C 15,6 C 12,2 C 90 % 1018,2 hPa 0,0 l/m 0 min 0 min 37 W/m 6,4 km/h (2 Bft) 100,00 %
28.10.2022 09:08 16,2 C 15,6 C 12,2 C 90 % 1018,1 hPa 0,0 l/m 0 min 0 min 39 W/m 12,9 km/h (3 Bft) 97,87 %
28.10.2022 09:10 16,2 C 15,6 C 12,2 C 90 % 1018,1 hPa 0,0 l/m 0 min 0 min 42 W/m 3,2 km/h (1 Bft) 100,00 %
28.10.2022 09:12 16,2 C 15,6 C 12,2 C 90 % 1018,2 hPa 0,0 l/m 0 min 0 min 46 W/m 6,4 km/h (2 Bft) 100,00 %
28.10.2022 09:14 16,2 C 15,6 C 12,2 C 90 % 1018,2 hPa 0,0 l/m 0 min 0 min 50 W/m 6,4 km/h (2 Bft) 100,00 %
28.10.2022 09:16 16,2 C 15,6 C 12,2 C 90 % 1018,3 hPa 0,0 l/m 0 min 0 min 51 W/m 9,7 km/h (2 Bft) 100,00 %
28.10.2022 09:18 16,3 C 15,6 C 12,2 C 90 % 1018,3 hPa 0,0 l/m 0 min 0 min 53 W/m 6,4 km/h (2 Bft) 97,87 %
28.10.2022 09:20 16,3 C 16,1 C 12,2 C 90 % 1018,3 hPa 0,0 l/m 0 min 0 min 55 W/m 3,2 km/h (1 Bft) 100,00 %
28.10.2022 09:22 16,3 C 16,1 C 12,2 C 90 % 1018,3 hPa 0,0 l/m 0 min 0 min 57 W/m 12,9 km/h (3 Bft) 97,87 %
28.10.2022 09:24 16,3 C 16,1 C 12,2 C 90 % 1018,3 hPa 0,0 l/m 0 min 0 min 59 W/m 3,2 km/h (1 Bft) 97,87 %
28.10.2022 09:26 16,4 C 16,1 C 12,2 C 91 % 1018,4 hPa 0,0 l/m 0 min 0 min 62 W/m 6,4 km/h (2 Bft) 95,65 %
28.10.2022 09:28 16,4 C 16,1 C 12,2 C 91 % 1018,4 hPa 0,0 l/m 0 min 0 min 62 W/m 6,4 km/h (2 Bft) 97,87 %
28.10.2022 09:30 16,5 C 16,1 C 12,2 C 90 % 1018,4 hPa 0,0 l/m 0 min 0 min 64 W/m 6,4 km/h (2 Bft) 93,62 %
28.10.2022 09:32 16,6 C 16,1 C 12,8 C 90 % 1018,4 hPa 0,0 l/m 0 min 0 min 63 W/m 6,4 km/h (2 Bft) 97,87 %
28.10.2022 09:34 16,6 C 16,1 C 12,8 C 90 % 1018,4 hPa 0,0 l/m 0 min 0 min 62 W/m 6,4 km/h (2 Bft) 97,87 %
28.10.2022 09:36 16,6 C 16,7 C 12,8 C 90 % 1018,4 hPa 0,0 l/m 0 min 0 min 61 W/m 6,4 km/h (2 Bft) 97,83 %
28.10.2022 09:38 16,7 C 16,7 C 12,8 C 90 % 1018,4 hPa 0,0 l/m 0 min 0 min 60 W/m 12,9 km/h (3 Bft) 97,87 %
28.10.2022 09:40 16,7 C 16,7 C 12,8 C 90 % 1018,3 hPa 0,0 l/m 0 min 0 min 62 W/m 12,9 km/h (3 Bft) 95,74 %
28.10.2022 09:42 16,8 C 16,7 C 12,8 C 90 % 1018,4 hPa 0,0 l/m 0 min 0 min 63 W/m 9,7 km/h (2 Bft) 97,87 %
28.10.2022 09:44 16,8 C 16,7 C 12,8 C 90 % 1018,5 hPa 0,0 l/m 0 min 0 min 63 W/m 12,9 km/h (3 Bft) 97,87 %
28.10.2022 09:46 16,8 C 16,7 C 12,8 C 90 % 1018,5 hPa 0,0 l/m 0 min 0 min 62 W/m 12,9 km/h (3 Bft) 97,87 %
28.10.2022 09:48 16,9 C 16,7 C 12,8 C 89 % 1018,5 hPa 0,0 l/m 0 min 0 min 63 W/m 12,9 km/h (3 Bft) 97,83 %
28.10.2022 09:50 16,9 C 16,7 C 12,8 C 89 % 1018,5 hPa 0,0 l/m 0 min 0 min 64 W/m 12,9 km/h (3 Bft) 97,87 %
28.10.2022 09:52 17,0 C 16,7 C 12,8 C 89 % 1018,6 hPa 0,0 l/m 0 min 0 min 66 W/m 12,9 km/h (3 Bft) 95,74 %
28.10.2022 09:54 17,1 C 16,7 C 12,8 C 89 % 1018,6 hPa 0,0 l/m 0 min 0 min 74 W/m 12,9 km/h (3 Bft) 97,87 %
28.10.2022 09:56 17,1 C 16,7 C 12,8 C 89 % 1018,6 hPa 0,0 l/m 0 min 0 min 66 W/m 12,9 km/h (3 Bft) 97,87 %
28.10.2022 09:58 17,1 C 17,2 C 12,8 C 89 % 1018,7 hPa 0,0 l/m 0 min 0 min 61 W/m 16,1 km/h (3 Bft) 97,87 %
28.10.2022 10:00 17,2 C 17,2 C 13,3 C 89 % 1018,7 hPa 0,0 l/m 0 min 0 min 54 W/m 19,3 km/h (3 Bft) 95,74 %
28.10.2022 10:02 17,3 C 17,2 C 13,3 C 88 % 1018,7 hPa 0,0 l/m 0 min 0 min 53 W/m 6,4 km/h (2 Bft) 97,83 %
28.10.2022 10:04 17,3 C 17,2 C 13,3 C 88 % 1018,7 hPa 0,0 l/m 0 min 0 min 54 W/m 16,1 km/h (3 Bft) 97,87 %
28.10.2022 10:06 17,4 C 17,2 C 13,3 C 88 % 1018,6 hPa 0,0 l/m 0 min 0 min 55 W/m 16,1 km/h (3 Bft) 97,87 %
28.10.2022 10:08 17,4 C 17,2 C 13,3 C 88 % 1018,5 hPa 0,0 l/m 0 min 0 min 58 W/m 16,1 km/h (3 Bft) 95,74 %
28.10.2022 10:10 17,4 C 17,2 C 13,3 C 88 % 1018,5 hPa 0,0 l/m 0 min 0 min 58 W/m 16,1 km/h (3 Bft) 93,62 %
28.10.2022 10:12 17,4 C 17,2 C 13,3 C 87 % 1018,5 hPa 0,0 l/m 0 min 0 min 56 W/m 12,9 km/h (3 Bft) 95,74 %
28.10.2022 10:14 17,5 C 17,2 C 12,8 C 87 % 1018,5 hPa 0,0 l/m 0 min 0 min 55 W/m 16,1 km/h (3 Bft) 95,65 %
28.10.2022 10:16 17,5 C 17,2 C 12,8 C 87 % 1018,5 hPa 0,0 l/m 0 min 0 min 52 W/m 6,4 km/h (2 Bft) 97,87 %
28.10.2022 10:18 17,5 C 16,7 C 12,8 C 87 % 1018,5 hPa 0,0 l/m 0 min 0 min 51 W/m 12,9 km/h (3 Bft) 89,36 %
28.10.2022 10:20 17,5 C 16,7 C 12,8 C 87 % 1018,4 hPa 0,0 l/m 0 min 0 min 53 W/m 6,4 km/h (2 Bft) 95,74 %
28.10.2022 10:22 17,5 C 16,7 C 12,8 C 87 % 1018,4 hPa 0,0 l/m 0 min 0 min 53 W/m 6,4 km/h (2 Bft) 95,74 %
28.10.2022 10:24 17,5 C 16,7 C 12,8 C 87 % 1018,4 hPa 0,0 l/m 0 min 0 min 59 W/m 6,4 km/h (2 Bft) 93,48 %
28.10.2022 10:26 17,5 C 17,2 C 12,8 C 87 % 1018,5 hPa 0,0 l/m 0 min 0 min 68 W/m 6,4 km/h (2 Bft) 95,74 %
28.10.2022 10:28 17,5 C 17,2 C 12,8 C 87 % 1018,5 hPa 0,0 l/m 0 min 0 min 73 W/m 16,1 km/h (3 Bft) 93,62 %
28.10.2022 10:30 17,6 C 17,2 C 13,3 C 87 % 1018,5 hPa 0,0 l/m 0 min 0 min 72 W/m 12,9 km/h (3 Bft) 95,74 %
28.10.2022 10:32 17,6 C 17,2 C 13,3 C 87 % 1018,5 hPa 0,0 l/m 0 min 0 min 65 W/m 6,4 km/h (2 Bft) 95,74 %
28.10.2022 10:34 17,6 C 17,8 C 13,3 C 87 % 1018,5 hPa 0,0 l/m 0 min 0 min 65 W/m 6,4 km/h (2 Bft) 97,87 %
28.10.2022 10:36 17,7 C 17,8 C 13,3 C 87 % 1018,5 hPa 0,0 l/m 0 min 0 min 68 W/m 19,3 km/h (3 Bft) 95,65 %
28.10.2022 10:38 17,7 C 18,3 C 13,3 C 87 % 1018,4 hPa 0,0 l/m 0 min 0 min 78 W/m 12,9 km/h (3 Bft) 95,74 %
28.10.2022 10:40 17,8 C 18,3 C 13,3 C 87 % 1018,5 hPa 0,0 l/m 0 min 0 min 88 W/m 12,9 km/h (3 Bft) 95,74 %
28.10.2022 10:42 17,8 C 18,3 C 13,3 C 87 % 1018,5 hPa 0,0 l/m 0 min 0 min 121 W/m 6,4 km/h (2 Bft) 93,62 %
28.10.2022 10:44 17,9 C 18,3 C 13,9 C 87 % 1018,5 hPa 0,0 l/m 0 min 0 min 122 W/m 12,9 km/h (3 Bft) 93,62 %
28.10.2022 10:46 18,0 C 18,3 C 13,9 C 87 % 1018,5 hPa 0,0 l/m 2 min 0 min 166 W/m 6,4 km/h (2 Bft) 95,74 %
28.10.2022 10:48 18,1 C 18,9 C 13,9 C 86 % 1018,5 hPa 0,0 l/m 0 min 0 min 95 W/m 6,4 km/h (2 Bft) 95,65 %
28.10.2022 10:50 18,2 C 18,9 C 13,9 C 86 % 1018,5 hPa 0,0 l/m 0 min 0 min 87 W/m 6,4 km/h (2 Bft) 95,74 %
28.10.2022 10:52 18,2 C 18,9 C 13,9 C 86 % 1018,4 hPa 0,0 l/m 0 min 0 min 87 W/m 12,9 km/h (3 Bft) 97,87 %
28.10.2022 10:54 18,3 C 18,9 C 13,9 C 85 % 1018,4 hPa 0,0 l/m 0 min 0 min 103 W/m 16,1 km/h (3 Bft) 100,00 %
28.10.2022 10:56 18,4 C 20,0 C 14,4 C 85 % 1018,4 hPa 0,0 l/m 0 min 0 min 118 W/m 6,4 km/h (2 Bft) 100,00 %
28.10.2022 10:58 18,6 C 20,6 C 14,4 C 85 % 1018,4 hPa 0,0 l/m 2 min 0 min 189 W/m 6,4 km/h (2 Bft) 100,00 %
28.10.2022 11:00 18,7 C 20,6 C 14,4 C 84 % 1018,3 hPa 0,0 l/m 2 min 0 min 183 W/m 6,4 km/h (2 Bft) 95,65 %
28.10.2022 11:02 18,8 C 20,6 C 14,4 C 84 % 1018,4 hPa 0,0 l/m 0 min 0 min 123 W/m 12,9 km/h (3 Bft) 100,00 %
28.10.2022 11:04 18,9 C 20,6 C 14,4 C 84 % 1018,3 hPa 0,0 l/m 0 min 0 min 145 W/m 12,9 km/h (3 Bft) 100,00 %
28.10.2022 11:06 19,0 C 21,7 C 14,4 C 83 % 1018,3 hPa 0,0 l/m 2 min 0 min 201 W/m 12,9 km/h (3 Bft) 97,87 %
28.10.2022 11:08 19,1 C 22,2 C 14,4 C 83 % 1018,4 hPa 0,0 l/m 2 min 0 min 260 W/m 6,4 km/h (2 Bft) 100,00 %
28.10.2022 11:10 19,2 C 23,3 C 14,4 C 83 % 1018,3 hPa 0,0 l/m 2 min 0 min 291 W/m 16,1 km/h (3 Bft) 100,00 %
28.10.2022 11:12 19,3 C 23,9 C 14,4 C 83 % 1018,3 hPa 0,0 l/m 2 min 0 min 285 W/m 12,9 km/h (3 Bft) 100,00 %
28.10.2022 11:14 19,4 C 24,4 C 15,0 C 82 % 1018,4 hPa 0,0 l/m 2 min 0 min 292 W/m 9,7 km/h (2 Bft) 95,74 %
28.10.2022 11:16 19,5 C 25,0 C 15,0 C 82 % 1018,4 hPa 0,0 l/m 2 min 0 min 326 W/m 16,1 km/h (3 Bft) 100,00 %
28.10.2022 11:18 19,6 C 25,0 C 15,0 C 82 % 1018,4 hPa 0,0 l/m 2 min 0 min 324 W/m 12,9 km/h (3 Bft) 100,00 %
28.10.2022 11:20 19,7 C 25,6 C 15,0 C 81 % 1018,3 hPa 0,0 l/m 2 min 0 min 325 W/m 9,7 km/h (2 Bft) 100,00 %
28.10.2022 11:22 19,8 C 25,0 C 15,0 C 81 % 1018,4 hPa 0,0 l/m 2 min 0 min 314 W/m 9,7 km/h (2 Bft) 100,00 %
28.10.2022 11:24 19,9 C 23,3 C 15,0 C 80 % 1018,3 hPa 0,0 l/m 0 min 0 min 177 W/m 12,9 km/h (3 Bft) 100,00 %
28.10.2022 11:26 19,9 C 22,8 C 15,0 C 80 % 1018,3 hPa 0,0 l/m 0 min 0 min 175 W/m 22,5 km/h (4 Bft) 100,00 %
28.10.2022 11:28 20,0 C 22,2 C 15,0 C 80 % 1018,3 hPa 0,0 l/m 2 min 0 min 207 W/m 16,1 km/h (3 Bft) 100,00 %
28.10.2022 11:30 20,1 C 21,7 C 15,0 C 79 % 1018,3 hPa 0,0 l/m 0 min 0 min 132 W/m 16,1 km/h (3 Bft) 100,00 %
28.10.2022 11:32 20,1 C 20,6 C 15,0 C 79 % 1018,3 hPa 0,0 l/m 0 min 0 min 94 W/m 16,1 km/h (3 Bft) 100,00 %
28.10.2022 11:34 20,1 C 20,6 C 15,0 C 79 % 1018,3 hPa 0,0 l/m 0 min 0 min 114 W/m 16,1 km/h (3 Bft) 97,87 %
28.10.2022 11:36 20,0 C 21,1 C 15,0 C 79 % 1018,3 hPa 0,0 l/m 0 min 0 min 152 W/m 16,1 km/h (3 Bft) 100,00 %
28.10.2022 11:38 20,0 C 21,7 C 15,0 C 79 % 1018,3 hPa 0,0 l/m 2 min 0 min 210 W/m 16,1 km/h (3 Bft) 100,00 %
28.10.2022 11:40 20,1 C 21,7 C 15,0 C 79 % 1018,3 hPa 0,0 l/m 2 min 0 min 246 W/m 12,9 km/h (3 Bft) 100,00 %
28.10.2022 11:42 20,1 C 21,7 C 15,6 C 79 % 1018,3 hPa 0,0 l/m 2 min 0 min 226 W/m 12,9 km/h (3 Bft) 100,00 %
28.10.2022 11:44 20,1 C 21,7 C 15,6 C 79 % 1018,4 hPa 0,0 l/m 2 min 0 min 233 W/m 16,1 km/h (3 Bft) 100,00 %
28.10.2022 11:46 20,2 C 21,1 C 15,6 C 79 % 1018,3 hPa 0,0 l/m 2 min 0 min 312 W/m 19,3 km/h (3 Bft) 100,00 %
28.10.2022 11:48 20,2 C 21,7 C 15,6 C 79 % 1018,3 hPa 0,0 l/m 2 min 0 min 289 W/m 9,7 km/h (2 Bft) 100,00 %
28.10.2022 11:50 20,3 C 21,7 C 15,6 C 79 % 1018,3 hPa 0,0 l/m 0 min 0 min 189 W/m 9,7 km/h (2 Bft) 100,00 %
28.10.2022 11:52 20,4 C 21,7 C 15,6 C 79 % 1018,3 hPa 0,0 l/m 0 min 0 min 174 W/m 6,4 km/h (2 Bft) 100,00 %
28.10.2022 11:54 20,4 C 21,1 C 15,6 C 79 % 1018,3 hPa 0,0 l/m 0 min 0 min 168 W/m 16,1 km/h (3 Bft) 100,00 %
28.10.2022 11:56 20,5 C 21,1 C 15,6 C 79 % 1018,3 hPa 0,0 l/m 0 min 0 min 173 W/m 6,4 km/h (2 Bft) 100,00 %
28.10.2022 11:58 20,6 C 21,1 C 15,6 C 79 % 1018,3 hPa 0,0 l/m 0 min 0 min 163 W/m 9,7 km/h (2 Bft) 100,00 %
28.10.2022 12:00 20,6 C 21,1 C 15,6 C 79 % 1018,3 hPa 0,0 l/m 0 min 0 min 147 W/m 12,9 km/h (3 Bft) 100,00 %
28.10.2022 12:02 20,6 C 20,6 C 15,6 C 79 % 1018,3 hPa 0,0 l/m 0 min 0 min 144 W/m 16,1 km/h (3 Bft) 100,00 %
28.10.2022 12:04 20,6 C 20,6 C 15,6 C 78 % 1018,4 hPa 0,0 l/m 0 min 0 min 150 W/m 12,9 km/h (3 Bft) 100,00 %
28.10.2022 12:08 20,6 C 20,6 C 15,6 C 78 % 1018,4 hPa 0,0 l/m 0 min 0 min 148 W/m 16,1 km/h (3 Bft) 100,00 %
28.10.2022 12:10 20,7 C 20,6 C 15,6 C 79 % 1018,3 hPa 0,0 l/m 0 min 0 min 148 W/m 12,9 km/h (3 Bft) 100,00 %
28.10.2022 12:12 20,7 C 20,6 C 15,6 C 78 % 1018,3 hPa 0,0 l/m 0 min 0 min 150 W/m 12,9 km/h (3 Bft) 100,00 %
28.10.2022 12:14 20,7 C 20,6 C 16,1 C 78 % 1018,4 hPa 0,0 l/m 0 min 0 min 152 W/m 19,3 km/h (3 Bft) 97,87 %
28.10.2022 12:16 20,7 C 20,6 C 16,1 C 78 % 1018,4 hPa 0,0 l/m 0 min 0 min 156 W/m 16,1 km/h (3 Bft) 100,00 %
28.10.2022 12:18 20,8 C 20,6 C 16,1 C 79 % 1018,4 hPa 0,0 l/m 0 min 0 min 156 W/m 16,1 km/h (3 Bft) 100,00 %
28.10.2022 12:20 20,8 C 20,6 C 16,1 C 78 % 1018,4 hPa 0,0 l/m 0 min 0 min 155 W/m 16,1 km/h (3 Bft) 100,00 %
28.10.2022 12:22 20,8 C 21,1 C 16,1 C 78 % 1018,4 hPa 0,0 l/m 0 min 0 min 155 W/m 12,9 km/h (3 Bft) 95,74 %
28.10.2022 12:24 20,9 C 21,1 C 16,1 C 79 % 1018,4 hPa 0,0 l/m 0 min 0 min 157 W/m 12,9 km/h (3 Bft) 95,65 %
28.10.2022 12:26 20,9 C 21,1 C 16,1 C 78 % 1018,4 hPa 0,0 l/m 0 min 0 min 153 W/m 12,9 km/h (3 Bft) 97,87 %
28.10.2022 12:28 21,0 C 21,1 C 16,1 C 78 % 1018,4 hPa 0,0 l/m 0 min 0 min 149 W/m 16,1 km/h (3 Bft) 97,87 %
28.10.2022 12:30 21,1 C 21,1 C 16,1 C 78 % 1018,4 hPa 0,0 l/m 0 min 0 min 148 W/m 12,9 km/h (3 Bft) 97,87 %
28.10.2022 12:32 21,1 C 21,1 C 16,7 C 78 % 1018,4 hPa 0,0 l/m 0 min 0 min 146 W/m 12,9 km/h (3 Bft) 93,62 %
28.10.2022 12:34 21,2 C 21,1 C 16,7 C 77 % 1018,3 hPa 0,0 l/m 0 min 0 min 145 W/m 16,1 km/h (3 Bft) 97,87 %
28.10.2022 12:36 21,2 C 21,1 C 16,7 C 77 % 1018,3 hPa 0,0 l/m 0 min 0 min 148 W/m 16,1 km/h (3 Bft) 97,83 %
28.10.2022 12:38 21,3 C 21,1 C 16,7 C 78 % 1018,3 hPa 0,0 l/m 0 min 0 min 148 W/m 12,9 km/h (3 Bft) 97,87 %
28.10.2022 12:40 21,3 C 21,1 C 16,7 C 77 % 1018,3 hPa 0,0 l/m 0 min 0 min 145 W/m 16,1 km/h (3 Bft) 97,87 %
28.10.2022 12:42 21,3 C 21,1 C 16,7 C 77 % 1018,3 hPa 0,0 l/m 0 min 0 min 144 W/m 16,1 km/h (3 Bft) 93,62 %
28.10.2022 12:44 21,3 C 21,1 C 16,7 C 77 % 1018,3 hPa 0,0 l/m 0 min 0 min 143 W/m 6,4 km/h (2 Bft) 93,62 %
28.10.2022 12:46 21,4 C 21,1 C 16,7 C 77 % 1018,3 hPa 0,0 l/m 0 min 0 min 138 W/m 16,1 km/h (3 Bft) 89,36 %
28.10.2022 12:48 21,4 C 21,1 C 16,7 C 77 % 1018,3 hPa 0,0 l/m 0 min 0 min 131 W/m 16,1 km/h (3 Bft) 93,48 %
28.10.2022 12:50 21,4 C 21,1 C 16,7 C 77 % 1018,3 hPa 0,0 l/m 0 min 0 min 132 W/m 12,9 km/h (3 Bft) 93,62 %
28.10.2022 12:52 21,4 C 21,1 C 16,7 C 77 % 1018,3 hPa 0,0 l/m 0 min 0 min 146 W/m 12,9 km/h (3 Bft) 93,62 %
28.10.2022 12:54 21,4 C 21,1 C 16,7 C 77 % 1018,3 hPa 0,0 l/m 0 min 0 min 151 W/m 12,9 km/h (3 Bft) 95,74 %
28.10.2022 12:56 21,5 C 21,7 C 16,7 C 77 % 1018,2 hPa 0,0 l/m 0 min 0 min 153 W/m 12,9 km/h (3 Bft) 95,74 %
28.10.2022 12:58 21,5 C 21,7 C 16,7 C 77 % 1018,2 hPa 0,0 l/m 0 min 0 min 152 W/m 16,1 km/h (3 Bft) 95,74 %
28.10.2022 13:00 21,6 C 21,7 C 16,7 C 77 % 1018,2 hPa 0,0 l/m 0 min 0 min 153 W/m 12,9 km/h (3 Bft) 93,48 %
28.10.2022 13:02 21,6 C 21,7 C 16,7 C 77 % 1018,2 hPa 0,0 l/m 0 min 0 min 162 W/m 9,7 km/h (2 Bft) 93,62 %
28.10.2022 13:04 21,7 C 22,2 C 16,7 C 77 % 1018,3 hPa 0,0 l/m 0 min 0 min 168 W/m 6,4 km/h (2 Bft) 93,62 %
28.10.2022 13:06 21,7 C 22,2 C 17,2 C 77 % 1018,3 hPa 0,0 l/m 0 min 0 min 163 W/m 6,4 km/h (2 Bft) 93,62 %
28.10.2022 13:08 21,8 C 22,2 C 17,2 C 77 % 1018,2 hPa 0,0 l/m 0 min 0 min 164 W/m 12,9 km/h (3 Bft) 91,43 %
28.10.2022 13:10 21,8 C 22,2 C 17,2 C 76 % 1018,2 hPa 0,0 l/m 0 min 0 min 164 W/m 12,9 km/h (3 Bft) 93,62 %
28.10.2022 13:12 21,9 C 22,2 C 17,2 C 76 % 1018,2 hPa 0,0 l/m 0 min 0 min 166 W/m 6,4 km/h (2 Bft) 95,74 %
28.10.2022 13:14 21,9 C 22,2 C 16,7 C 77 % 1018,1 hPa 0,0 l/m 0 min 0 min 171 W/m 6,4 km/h (2 Bft) 95,65 %
28.10.2022 13:16 22,0 C 22,2 C 17,2 C 77 % 1018,0 hPa 0,0 l/m 0 min 0 min 176 W/m 6,4 km/h (2 Bft) 95,74 %
28.10.2022 13:18 22,1 C 22,8 C 17,2 C 77 % 1018,0 hPa 0,0 l/m 0 min 0 min 186 W/m 16,1 km/h (3 Bft) 95,74 %
28.10.2022 13:20 22,1 C 22,8 C 17,2 C 76 % 1018,0 hPa 0,0 l/m 0 min 0 min 191 W/m 12,9 km/h (3 Bft) 97,87 %
28.10.2022 13:22 22,2 C 22,8 C 17,2 C 76 % 1018,0 hPa 0,0 l/m 0 min 0 min 190 W/m 12,9 km/h (3 Bft) 93,62 %
28.10.2022 13:24 22,2 C 22,8 C 17,2 C 76 % 1017,9 hPa 0,0 l/m 0 min 0 min 185 W/m 9,7 km/h (2 Bft) 95,74 %
28.10.2022 13:26 22,3 C 22,8 C 17,2 C 76 % 1017,9 hPa 0,0 l/m 0 min 0 min 171 W/m 9,7 km/h (2 Bft) 95,74 %
28.10.2022 13:28 22,3 C 22,8 C 17,2 C 76 % 1017,9 hPa 0,0 l/m 0 min 0 min 163 W/m 9,7 km/h (2 Bft) 91,30 %
28.10.2022 13:30 22,3 C 22,8 C 17,2 C 76 % 1017,8 hPa 0,0 l/m 0 min 0 min 158 W/m 6,4 km/h (2 Bft) 97,87 %
28.10.2022 13:32 22,4 C 22,8 C 17,2 C 76 % 1017,8 hPa 0,0 l/m 0 min 0 min 155 W/m 6,4 km/h (2 Bft) 93,62 %
28.10.2022 13:34 22,4 C 22,8 C 17,2 C 76 % 1017,8 hPa 0,0 l/m 0 min 0 min 156 W/m 9,7 km/h (2 Bft) 95,74 %
28.10.2022 13:36 22,4 C 22,8 C 17,2 C 76 % 1017,9 hPa 0,0 l/m 0 min 0 min 156 W/m 9,7 km/h (2 Bft) 100,00 %
28.10.2022 13:38 22,5 C 22,8 C 17,2 C 75 % 1017,8 hPa 0,0 l/m 0 min 0 min 156 W/m 12,9 km/h (3 Bft) 100,00 %
28.10.2022 13:40 22,6 C 22,8 C 17,2 C 75 % 1017,8 hPa 0,0 l/m 0 min 0 min 152 W/m 6,4 km/h (2 Bft) 100,00 %
28.10.2022 13:42 22,6 C 23,3 C 17,2 C 76 % 1017,8 hPa 0,0 l/m 0 min 0 min 156 W/m 9,7 km/h (2 Bft) 100,00 %
28.10.2022 13:44 22,7 C 23,3 C 17,2 C 76 % 1017,8 hPa 0,0 l/m 0 min 0 min 164 W/m 6,4 km/h (2 Bft) 97,87 %
28.10.2022 13:46 22,7 C 23,3 C 17,2 C 76 % 1017,8 hPa 0,0 l/m 0 min 0 min 179 W/m 9,7 km/h (2 Bft) 100,00 %
28.10.2022 13:48 22,8 C 23,3 C 17,2 C 75 % 1017,7 hPa 0,0 l/m 0 min 0 min 205 W/m 9,7 km/h (2 Bft) 100,00 %
28.10.2022 13:50 22,8 C 23,3 C 17,2 C 75 % 1017,8 hPa 0,0 l/m 2 min 0 min 239 W/m 19,3 km/h (3 Bft) 97,83 %
28.10.2022 13:52 22,9 C 23,9 C 17,2 C 75 % 1017,8 hPa 0,0 l/m 2 min 0 min 298 W/m 12,9 km/h (3 Bft) 100,00 %
28.10.2022 13:54 22,9 C 23,9 C 17,2 C 75 % 1017,8 hPa 0,0 l/m 2 min 0 min 327 W/m 12,9 km/h (3 Bft) 100,00 %
28.10.2022 13:56 23,0 C 24,4 C 17,2 C 75 % 1017,8 hPa 0,0 l/m 2 min 0 min 279 W/m 16,1 km/h (3 Bft) 100,00 %
28.10.2022 13:58 23,1 C 25,0 C 17,2 C 75 % 1017,8 hPa 0,0 l/m 2 min 0 min 321 W/m 12,9 km/h (3 Bft) 100,00 %
28.10.2022 14:00 23,1 C 25,0 C 17,8 C 74 % 1017,7 hPa 0,0 l/m 2 min 0 min 278 W/m 9,7 km/h (2 Bft) 100,00 %
28.10.2022 14:02 23,1 C 25,6 C 17,8 C 74 % 1017,7 hPa 0,0 l/m 2 min 0 min 333 W/m 9,7 km/h (2 Bft) 100,00 %
28.10.2022 14:04 23,2 C 25,6 C 17,8 C 74 % 1017,5 hPa 0,0 l/m 2 min 0 min 379 W/m 16,1 km/h (3 Bft) 97,87 %
28.10.2022 14:06 23,2 C 25,6 C 17,8 C 74 % 1017,5 hPa 0,0 l/m 2 min 0 min 372 W/m 16,1 km/h (3 Bft) 100,00 %
28.10.2022 14:08 23,3 C 25,0 C 17,8 C 74 % 1017,5 hPa 0,0 l/m 2 min 0 min 291 W/m 9,7 km/h (2 Bft) 100,00 %
28.10.2022 14:10 23,3 C 25,0 C 17,8 C 74 % 1017,4 hPa 0,0 l/m 2 min 0 min 292 W/m 6,4 km/h (2 Bft) 100,00 %
28.10.2022 14:12 23,4 C 24,4 C 17,8 C 74 % 1017,5 hPa 0,0 l/m 2 min 0 min 241 W/m 12,9 km/h (3 Bft) 100,00 %
28.10.2022 14:14 23,4 C 24,4 C 17,8 C 75 % 1017,4 hPa 0,0 l/m 2 min 0 min 234 W/m 9,7 km/h (2 Bft) 95,74 %
28.10.2022 14:16 23,4 C 23,9 C 17,8 C 74 % 1017,4 hPa 0,0 l/m 2 min 0 min 323 W/m 16,1 km/h (3 Bft) 97,56 %
28.10.2022 14:18 23,4 C 23,9 C 17,8 C 75 % 1017,4 hPa 0,0 l/m 2 min 0 min 332 W/m 6,4 km/h (2 Bft) 100,00 %
28.10.2022 14:20 23,5 C 23,9 C 17,8 C 74 % 1017,3 hPa 0,0 l/m 2 min 0 min 316 W/m 12,9 km/h (3 Bft) 97,87 %
28.10.2022 14:22 23,6 C 23,9 C 17,8 C 74 % 1017,3 hPa 0,0 l/m 2 min 0 min 330 W/m 6,4 km/h (2 Bft) 97,87 %
28.10.2022 14:24 23,6 C 23,9 C 17,8 C 75 % 1017,3 hPa 0,0 l/m 2 min 0 min 351 W/m 12,9 km/h (3 Bft) 100,00 %
28.10.2022 14:26 23,6 C 23,9 C 18,3 C 75 % 1017,3 hPa 0,0 l/m 2 min 0 min 336 W/m 6,4 km/h (2 Bft) 97,83 %
28.10.2022 14:28 23,7 C 23,9 C 18,3 C 74 % 1017,4 hPa 0,0 l/m 2 min 0 min 271 W/m 6,4 km/h (2 Bft) 97,87 %
28.10.2022 14:30 23,7 C 23,9 C 18,3 C 74 % 1017,3 hPa 0,0 l/m 2 min 0 min 269 W/m 6,4 km/h (2 Bft) 97,87 %
28.10.2022 14:32 23,7 C 23,9 C 18,3 C 74 % 1017,3 hPa 0,0 l/m 2 min 0 min 231 W/m 6,4 km/h (2 Bft) 97,87 %
28.10.2022 14:34 23,8 C 23,9 C 18,3 C 75 % 1017,3 hPa 0,0 l/m 2 min 0 min 202 W/m 6,4 km/h (2 Bft) 97,87 %
28.10.2022 14:36 23,8 C 23,9 C 18,3 C 75 % 1017,4 hPa 0,0 l/m 0 min 0 min 194 W/m 6,4 km/h (2 Bft) 96,88 %
28.10.2022 14:38 23,8 C 23,9 C 18,3 C 75 % 1017,3 hPa 0,0 l/m 0 min 0 min 177 W/m 6,4 km/h (2 Bft) 100,00 %
28.10.2022 14:40 23,8 C 23,9 C 18,3 C 75 % 1017,3 hPa 0,0 l/m 0 min 0 min 192 W/m 6,4 km/h (2 Bft) 97,87 %
28.10.2022 14:42 23,8 C 23,9 C 17,8 C 75 % 1017,4 hPa 0,0 l/m 2 min 0 min 215 W/m 12,9 km/h (3 Bft) 97,87 %
28.10.2022 14:44 23,9 C 23,9 C 18,3 C 75 % 1017,4 hPa 0,0 l/m 2 min 0 min 278 W/m 19,3 km/h (3 Bft) 87,23 %
28.10.2022 14:46 23,9 C 23,9 C 18,3 C 74 % 1017,5 hPa 0,0 l/m 2 min 0 min 296 W/m 19,3 km/h (3 Bft) 92,68 %
28.10.2022 14:48 23,9 C 23,9 C 18,3 C 73 % 1017,4 hPa 0,0 l/m 2 min 0 min 227 W/m 12,9 km/h (3 Bft) 97,87 %
28.10.2022 14:50 24,0 C 23,9 C 18,3 C 72 % 1017,4 hPa 0,0 l/m 0 min 0 min 164 W/m 19,3 km/h (3 Bft) 97,83 %
28.10.2022 14:52 24,0 C 23,9 C 18,3 C 71 % 1017,3 hPa 0,0 l/m 0 min 0 min 172 W/m 25,7 km/h (4 Bft) 93,62 %
28.10.2022 14:54 24,1 C 23,9 C 18,3 C 70 % 1017,4 hPa 0,0 l/m 0 min 0 min 173 W/m 12,9 km/h (3 Bft) 89,36 %
28.10.2022 14:56 24,1 C 23,9 C 18,3 C 70 % 1017,4 hPa 0,0 l/m 0 min 0 min 175 W/m 12,9 km/h (3 Bft) 93,62 %
28.10.2022 14:58 24,1 C 23,9 C 18,3 C 70 % 1017,4 hPa 0,0 l/m 2 min 0 min 205 W/m 16,1 km/h (3 Bft) 97,87 %
28.10.2022 15:00 24,1 C 23,9 C 18,3 C 69 % 1017,4 hPa 0,0 l/m 2 min 0 min 240 W/m 29,0 km/h (5 Bft) 91,49 %
28.10.2022 15:02 24,1 C 23,9 C 18,3 C 69 % 1017,4 hPa 0,0 l/m 2 min 0 min 215 W/m 12,9 km/h (3 Bft) 100,00 %
28.10.2022 15:04 24,2 C 23,9 C 18,3 C 69 % 1017,4 hPa 0,0 l/m 2 min 0 min 186 W/m 9,7 km/h (2 Bft) 97,87 %
28.10.2022 15:06 24,2 C 23,9 C 18,3 C 69 % 1017,5 hPa 0,0 l/m 0 min 0 min 175 W/m 12,9 km/h (3 Bft) 100,00 %
28.10.2022 15:08 24,2 C 23,9 C 18,3 C 68 % 1017,6 hPa 0,0 l/m 0 min 0 min 180 W/m 12,9 km/h (3 Bft) 94,29 %
28.10.2022 15:10 24,2 C 23,9 C 18,3 C 68 % 1017,5 hPa 0,0 l/m 2 min 0 min 183 W/m 9,7 km/h (2 Bft) 100,00 %
28.10.2022 15:12 24,2 C 23,9 C 18,3 C 68 % 1017,6 hPa 0,0 l/m 2 min 0 min 203 W/m 16,1 km/h (3 Bft) 95,65 %
28.10.2022 15:14 24,2 C 23,9 C 18,3 C 67 % 1017,6 hPa 0,0 l/m 2 min 0 min 180 W/m 12,9 km/h (3 Bft) 97,87 %
28.10.2022 15:16 24,2 C 23,9 C 18,3 C 66 % 1017,6 hPa 0,0 l/m 0 min 0 min 166 W/m 22,5 km/h (4 Bft) 95,12 %
28.10.2022 15:18 24,2 C 23,9 C 18,3 C 65 % 1017,5 hPa 0,0 l/m 0 min 0 min 167 W/m 19,3 km/h (3 Bft) 97,87 %
28.10.2022 15:20 24,2 C 23,9 C 18,9 C 65 % 1017,6 hPa 0,0 l/m 2 min 0 min 178 W/m 29,0 km/h (5 Bft) 95,74 %
28.10.2022 15:22 24,2 C 23,9 C 18,9 C 64 % 1017,6 hPa 0,0 l/m 2 min 0 min 186 W/m 22,5 km/h (4 Bft) 97,87 %
28.10.2022 15:24 24,2 C 23,9 C 18,9 C 63 % 1017,7 hPa 0,0 l/m 2 min 0 min 186 W/m 19,3 km/h (3 Bft) 95,74 %
28.10.2022 15:26 24,2 C 23,9 C 18,9 C 64 % 1017,7 hPa 0,0 l/m 2 min 0 min 188 W/m 16,1 km/h (3 Bft) 95,65 %
28.10.2022 15:28 24,2 C 23,9 C 18,9 C 64 % 1017,8 hPa 0,0 l/m 2 min 0 min 207 W/m 9,7 km/h (2 Bft) 95,74 %
28.10.2022 15:30 24,2 C 23,9 C 18,3 C 64 % 1017,7 hPa 0,0 l/m 2 min 0 min 219 W/m 12,9 km/h (3 Bft) 97,87 %
28.10.2022 15:32 24,2 C 23,9 C 18,9 C 64 % 1017,8 hPa 0,0 l/m 2 min 0 min 231 W/m 12,9 km/h (3 Bft) 95,74 %
28.10.2022 15:34 24,2 C 24,4 C 18,9 C 64 % 1017,8 hPa 0,0 l/m 2 min 0 min 248 W/m 25,7 km/h (4 Bft) 95,74 %
28.10.2022 15:36 24,2 C 24,4 C 18,3 C 64 % 1017,7 hPa 0,0 l/m 2 min 0 min 242 W/m 6,4 km/h (2 Bft) 96,15 %
28.10.2022 15:38 24,3 C 24,4 C 18,3 C 64 % 1017,7 hPa 0,0 l/m 2 min 0 min 223 W/m 16,1 km/h (3 Bft) 97,87 %
28.10.2022 15:40 24,3 C 23,9 C 18,3 C 64 % 1017,7 hPa 0,0 l/m 2 min 0 min 165 W/m 12,9 km/h (3 Bft) 95,74 %
28.10.2022 15:42 24,3 C 23,9 C 18,3 C 65 % 1017,7 hPa 0,0 l/m 0 min 0 min 135 W/m 3,2 km/h (1 Bft) 97,87 %
28.10.2022 15:44 24,2 C 23,9 C 18,3 C 65 % 1017,7 hPa 0,0 l/m 0 min 0 min 127 W/m 9,7 km/h (2 Bft) 97,87 %
28.10.2022 15:46 24,2 C 23,9 C 17,8 C 65 % 1017,7 hPa 0,0 l/m 0 min 0 min 116 W/m 3,2 km/h (1 Bft) 95,12 %
28.10.2022 15:48 24,2 C 23,3 C 17,8 C 65 % 1017,7 hPa 0,0 l/m 0 min 0 min 105 W/m 6,4 km/h (2 Bft) 97,87 %
28.10.2022 15:50 24,1 C 23,3 C 17,8 C 65 % 1017,8 hPa 0,0 l/m 0 min 0 min 109 W/m 9,7 km/h (2 Bft) 97,83 %
28.10.2022 15:52 24,1 C 23,3 C 17,8 C 66 % 1017,8 hPa 0,0 l/m 0 min 0 min 107 W/m 6,4 km/h (2 Bft) 97,87 %
28.10.2022 15:54 24,1 C 23,3 C 17,8 C 66 % 1017,8 hPa 0,0 l/m 0 min 0 min 109 W/m 6,4 km/h (2 Bft) 95,74 %
28.10.2022 15:56 24,0 C 23,3 C 17,8 C 65 % 1017,8 hPa 0,0 l/m 0 min 0 min 116 W/m 6,4 km/h (2 Bft) 97,87 %
28.10.2022 15:58 23,9 C 22,8 C 17,8 C 66 % 1017,9 hPa 0,0 l/m 0 min 0 min 123 W/m 12,9 km/h (3 Bft) 95,74 %
28.10.2022 16:00 23,8 C 22,8 C 17,8 C 66 % 1017,9 hPa 0,0 l/m 0 min 0 min 123 W/m 6,4 km/h (2 Bft) 91,49 %
28.10.2022 16:02 23,8 C 22,8 C 17,8 C 66 % 1017,8 hPa 0,0 l/m 0 min 0 min 119 W/m 6,4 km/h (2 Bft) 97,83 %
28.10.2022 16:04 23,8 C 22,8 C 17,8 C 67 % 1017,8 hPa 0,0 l/m 0 min 0 min 113 W/m 3,2 km/h (1 Bft) 97,87 %
28.10.2022 16:06 23,7 C 22,8 C 17,8 C 67 % 1018,0 hPa 0,0 l/m 0 min 0 min 107 W/m 6,4 km/h (2 Bft) 94,92 %
28.10.2022 16:08 23,6 C 22,8 C 17,8 C 67 % 1018,1 hPa 0,0 l/m 0 min 0 min 104 W/m 6,4 km/h (2 Bft) 100,00 %
28.10.2022 16:10 23,6 C 22,8 C 17,8 C 67 % 1018,0 hPa 0,0 l/m 0 min 0 min 101 W/m 16,1 km/h (3 Bft) 97,87 %
28.10.2022 16:12 23,6 C 22,8 C 17,8 C 67 % 1018,1 hPa 0,0 l/m 0 min 0 min 99 W/m 3,2 km/h (1 Bft) 95,74 %
28.10.2022 16:14 23,5 C 22,8 C 17,8 C 67 % 1018,0 hPa 0,0 l/m 0 min 0 min 98 W/m 6,4 km/h (2 Bft) 97,83 %
28.10.2022 16:16 23,4 C 22,8 C 17,8 C 66 % 1018,0 hPa 0,0 l/m 0 min 0 min 98 W/m 19,3 km/h (3 Bft) 93,62 %
28.10.2022 16:18 23,4 C 22,8 C 17,8 C 67 % 1018,1 hPa 0,0 l/m 0 min 0 min 98 W/m 19,3 km/h (3 Bft) 97,87 %
28.10.2022 16:20 23,3 C 22,8 C 17,8 C 67 % 1018,1 hPa 0,0 l/m 0 min 0 min 97 W/m 12,9 km/h (3 Bft) 97,87 %
28.10.2022 16:22 23,3 C 22,8 C 17,8 C 67 % 1018,2 hPa 0,0 l/m 0 min 0 min 93 W/m 6,4 km/h (2 Bft) 97,87 %
28.10.2022 16:24 23,3 C 22,2 C 17,8 C 67 % 1018,3 hPa 0,0 l/m 0 min 0 min 89 W/m 12,9 km/h (3 Bft) 97,87 %
28.10.2022 16:26 23,3 C 22,2 C 17,8 C 67 % 1018,3 hPa 0,0 l/m 0 min 0 min 85 W/m 3,2 km/h (1 Bft) 97,83 %
28.10.2022 16:28 23,2 C 22,2 C 17,2 C 68 % 1018,3 hPa 0,0 l/m 0 min 0 min 84 W/m 6,4 km/h (2 Bft) 95,74 %
28.10.2022 16:30 23,2 C 22,2 C 17,2 C 68 % 1018,3 hPa 0,0 l/m 0 min 0 min 84 W/m 6,4 km/h (2 Bft) 95,74 %
28.10.2022 16:32 23,1 C 22,2 C 17,2 C 68 % 1018,3 hPa 0,0 l/m 0 min 0 min 86 W/m 6,4 km/h (2 Bft) 95,74 %
28.10.2022 16:34 23,1 C 22,2 C 17,2 C 68 % 1018,3 hPa 0,0 l/m 0 min 0 min 89 W/m 6,4 km/h (2 Bft) 95,74 %
28.10.2022 16:36 23,0 C 22,2 C 17,2 C 68 % 1018,3 hPa 0,0 l/m 0 min 0 min 92 W/m 12,9 km/h (3 Bft) 94,83 %
28.10.2022 16:38 23,0 C 22,2 C 17,2 C 68 % 1018,3 hPa 0,0 l/m 0 min 0 min 92 W/m 9,7 km/h (2 Bft) 97,14 %
28.10.2022 16:40 22,9 C 22,2 C 17,2 C 68 % 1018,4 hPa 0,0 l/m 0 min 0 min 92 W/m 12,9 km/h (3 Bft) 95,74 %
28.10.2022 16:42 22,9 C 22,2 C 17,2 C 68 % 1018,4 hPa 0,0 l/m 0 min 0 min 93 W/m 12,9 km/h (3 Bft) 93,62 %
28.10.2022 16:44 22,9 C 22,2 C 17,2 C 69 % 1018,3 hPa 0,0 l/m 0 min 0 min 95 W/m 3,2 km/h (1 Bft) 95,74 %
28.10.2022 16:46 22,8 C 22,2 C 17,2 C 69 % 1018,4 hPa 0,0 l/m 0 min 0 min 95 W/m 6,4 km/h (2 Bft) 95,74 %
28.10.2022 16:48 22,8 C 22,2 C 17,2 C 69 % 1018,4 hPa 0,0 l/m 0 min 0 min 95 W/m 12,9 km/h (3 Bft) 95,65 %
28.10.2022 16:50 22,8 C 22,2 C 17,2 C 69 % 1018,4 hPa 0,0 l/m 0 min 0 min 92 W/m 3,2 km/h (1 Bft) 95,74 %
28.10.2022 16:52 22,8 C 22,2 C 17,2 C 70 % 1018,5 hPa 0,0 l/m 0 min 0 min 90 W/m 6,4 km/h (2 Bft) 97,87 %
28.10.2022 16:54 22,7 C 22,2 C 17,2 C 70 % 1018,6 hPa 0,0 l/m 0 min 0 min 87 W/m 3,2 km/h (1 Bft) 97,87 %
28.10.2022 16:56 22,7 C 21,7 C 17,2 C 70 % 1018,7 hPa 0,0 l/m 0 min 0 min 83 W/m 3,2 km/h (1 Bft) 97,87 %
28.10.2022 16:58 22,7 C 21,7 C 17,2 C 70 % 1018,7 hPa 0,0 l/m 0 min 0 min 77 W/m 12,9 km/h (3 Bft) 97,87 %
28.10.2022 17:00 22,6 C 21,7 C 16,7 C 71 % 1018,7 hPa 0,0 l/m 0 min 0 min 72 W/m 6,4 km/h (2 Bft) 97,87 %
28.10.2022 17:02 22,6 C 21,7 C 16,7 C 71 % 1018,7 hPa 0,0 l/m 0 min 0 min 69 W/m 6,4 km/h (2 Bft) 95,65 %
28.10.2022 17:04 22,6 C 21,7 C 16,7 C 70 % 1018,7 hPa 0,0 l/m 0 min 0 min 63 W/m 6,4 km/h (2 Bft) 97,87 %
28.10.2022 17:06 22,5 C 21,1 C 16,7 C 71 % 1018,8 hPa 0,0 l/m 0 min 0 min 59 W/m 3,2 km/h (1 Bft) 100,00 %
28.10.2022 17:08 22,5 C 21,1 C 16,7 C 71 % 1018,7 hPa 0,0 l/m 0 min 0 min 53 W/m 3,2 km/h (1 Bft) 100,00 %
28.10.2022 17:10 22,4 C 21,1 C 16,7 C 71 % 1018,8 hPa 0,0 l/m 0 min 0 min 48 W/m 6,4 km/h (2 Bft) 100,00 %
28.10.2022 17:12 22,3 C 21,1 C 16,7 C 71 % 1018,8 hPa 0,0 l/m 0 min 0 min 44 W/m 6,4 km/h (2 Bft) 97,83 %
28.10.2022 17:14 22,3 C 21,1 C 16,7 C 71 % 1018,8 hPa 0,0 l/m 0 min 0 min 39 W/m 6,4 km/h (2 Bft) 100,00 %
28.10.2022 17:16 22,2 C 21,1 C 16,7 C 71 % 1018,8 hPa 0,0 l/m 0 min 0 min 37 W/m 12,9 km/h (3 Bft) 100,00 %
28.10.2022 17:18 22,2 C 21,1 C 16,7 C 71 % 1018,8 hPa 0,0 l/m 0 min 0 min 35 W/m 9,7 km/h (2 Bft) 100,00 %
28.10.2022 17:20 22,1 C 21,1 C 16,7 C 71 % 1018,7 hPa 0,0 l/m 0 min 0 min 35 W/m 6,4 km/h (2 Bft) 100,00 %
28.10.2022 17:22 22,1 C 20,6 C 16,7 C 72 % 1018,8 hPa 0,0 l/m 0 min 0 min 36 W/m 6,4 km/h (2 Bft) 100,00 %
28.10.2022 17:24 22,0 C 20,6 C 16,7 C 72 % 1018,8 hPa 0,0 l/m 0 min 0 min 37 W/m 6,4 km/h (2 Bft) 100,00 %
28.10.2022 17:26 22,0 C 20,6 C 16,1 C 72 % 1018,8 hPa 0,0 l/m 0 min 0 min 37 W/m 6,4 km/h (2 Bft) 100,00 %
28.10.2022 17:28 21,9 C 20,6 C 16,1 C 72 % 1018,8 hPa 0,0 l/m 0 min 0 min 35 W/m 3,2 km/h (1 Bft) 100,00 %
28.10.2022 17:30 21,9 C 20,6 C 16,1 C 72 % 1018,7 hPa 0,0 l/m 0 min 0 min 34 W/m 6,4 km/h (2 Bft) 100,00 %
28.10.2022 17:32 21,9 C 20,6 C 16,1 C 72 % 1018,8 hPa 0,0 l/m 0 min 0 min 33 W/m 9,7 km/h (2 Bft) 100,00 %
28.10.2022 17:34 21,8 C 20,6 C 16,1 C 72 % 1018,7 hPa 0,0 l/m 0 min 0 min 31 W/m 6,4 km/h (2 Bft) 100,00 %
28.10.2022 17:36 21,8 C 20,6 C 16,1 C 72 % 1018,8 hPa 0,0 l/m 0 min 0 min 29 W/m 6,4 km/h (2 Bft) 100,00 %
28.10.2022 17:38 21,7 C 20,6 C 16,1 C 72 % 1018,7 hPa 0,0 l/m 0 min 0 min 26 W/m 12,9 km/h (3 Bft) 100,00 %
28.10.2022 17:40 21,7 C 20,6 C 16,1 C 72 % 1018,8 hPa 0,0 l/m 0 min 0 min 25 W/m 3,2 km/h (1 Bft) 100,00 %
28.10.2022 17:42 21,7 C 20,6 C 16,1 C 72 % 1018,9 hPa 0,0 l/m 0 min 0 min 23 W/m 6,4 km/h (2 Bft) 100,00 %
28.10.2022 17:44 21,6 C 20,6 C 16,1 C 73 % 1018,8 hPa 0,0 l/m 0 min 0 min 21 W/m 6,4 km/h (2 Bft) 100,00 %
28.10.2022 17:46 21,6 C 20,6 C 16,1 C 73 % 1018,8 hPa 0,0 l/m 0 min 0 min 19 W/m 6,4 km/h (2 Bft) 97,56 %
28.10.2022 17:48 21,6 C 20,6 C 16,1 C 73 % 1018,8 hPa 0,0 l/m 0 min 0 min 18 W/m 6,4 km/h (2 Bft) 97,87 %
28.10.2022 17:50 21,5 C 20,0 C 16,1 C 73 % 1018,8 hPa 0,0 l/m 0 min 0 min 17 W/m 9,7 km/h (2 Bft) 97,83 %
28.10.2022 17:52 21,4 C 20,0 C 15,6 C 73 % 1018,9 hPa 0,0 l/m 0 min 0 min 15 W/m 3,2 km/h (1 Bft) 97,87 %
28.10.2022 17:54 21,4 C 20,0 C 15,6 C 73 % 1018,9 hPa 0,0 l/m 0 min 0 min 14 W/m 9,7 km/h (2 Bft) 97,87 %
28.10.2022 17:56 21,4 C 20,0 C 15,6 C 73 % 1019,0 hPa 0,0 l/m 0 min 0 min 12 W/m 3,2 km/h (1 Bft) 97,87 %
28.10.2022 17:58 21,3 C 20,0 C 15,6 C 73 % 1019,0 hPa 0,0 l/m 0 min 0 min 11 W/m 3,2 km/h (1 Bft) 97,87 %
28.10.2022 18:00 21,3 C 20,0 C 15,6 C 73 % 1019,0 hPa 0,0 l/m 0 min 0 min 9 W/m 3,2 km/h (1 Bft) 95,74 %
28.10.2022 18:02 21,3 C 20,0 C 15,6 C 73 % 1019,1 hPa 0,0 l/m 0 min 0 min 8 W/m 3,2 km/h (1 Bft) 97,83 %
28.10.2022 18:04 21,2 C 20,0 C 15,6 C 74 % 1019,1 hPa 0,0 l/m 0 min 0 min 7 W/m 3,2 km/h (1 Bft) 97,87 %
28.10.2022 18:08 21,1 C 19,4 C 15,6 C 74 % 1019,2 hPa 0,0 l/m 0 min 0 min 4 W/m 6,4 km/h (2 Bft) 97,06 %
28.10.2022 18:10 21,1 C 19,4 C 15,0 C 74 % 1019,3 hPa 0,0 l/m 0 min 0 min 0 W/m 3,2 km/h (1 Bft) 97,83 %
28.10.2022 18:12 21,1 C 19,4 C 15,0 C 74 % 1019,3 hPa 0,0 l/m 0 min 0 min 0 W/m 6,4 km/h (2 Bft) 95,74 %
28.10.2022 18:14 21,0 C 19,4 C 15,0 C 74 % 1019,2 hPa 0,0 l/m 0 min 0 min 0 W/m 3,2 km/h (1 Bft) 95,74 %
28.10.2022 18:16 20,9 C 19,4 C 15,0 C 74 % 1019,2 hPa 0,0 l/m 0 min 0 min 0 W/m 3,2 km/h (1 Bft) 98,00 %
28.10.2022 18:18 20,9 C 19,4 C 15,0 C 75 % 1019,2 hPa 0,0 l/m 0 min 0 min 0 W/m 6,4 km/h (2 Bft) 95,74 %
28.10.2022 18:20 20,9 C 19,4 C 15,0 C 75 % 1019,3 hPa 0,0 l/m 0 min 0 min 0 W/m 3,2 km/h (1 Bft) 95,74 %
28.10.2022 18:22 20,8 C 18,9 C 15,0 C 75 % 1019,3 hPa 0,0 l/m 0 min 0 min 0 W/m 3,2 km/h (1 Bft) 97,83 %
28.10.2022 18:24 20,8 C 18,9 C 15,0 C 75 % 1019,3 hPa 0,0 l/m 0 min 0 min 0 W/m 3,2 km/h (1 Bft) 95,74 %
28.10.2022 18:26 20,7 C 18,9 C 14,4 C 75 % 1019,3 hPa 0,0 l/m 0 min 0 min 0 W/m 3,2 km/h (1 Bft) 97,87 %
28.10.2022 18:28 20,7 C 18,9 C 14,4 C 75 % 1019,3 hPa 0,0 l/m 0 min 0 min 0 W/m 0,0 km/h (0 Bft) 95,74 %
28.10.2022 18:30 20,7 C 18,9 C 14,4 C 75 % 1019,3 hPa 0,0 l/m 0 min 0 min 0 W/m 3,2 km/h (1 Bft) 93,62 %
28.10.2022 18:32 20,6 C 18,9 C 14,4 C 76 % 1019,3 hPa 0,0 l/m 0 min 0 min 0 W/m 0,0 km/h (0 Bft) 95,74 %
28.10.2022 18:34 20,6 C 18,9 C 13,9 C 76 % 1019,3 hPa 0,0 l/m 0 min 0 min 0 W/m 0,0 km/h (0 Bft) 95,65 %
28.10.2022 18:36 20,6 C 18,3 C 13,9 C 76 % 1019,3 hPa 0,0 l/m 0 min 0 min 0 W/m 3,2 km/h (1 Bft) 93,62 %
28.10.2022 18:38 20,5 C 18,3 C 13,9 C 76 % 1019,4 hPa 0,0 l/m 0 min 0 min 0 W/m 0,0 km/h (0 Bft) 95,74 %
28.10.2022 18:40 20,4 C 18,3 C 13,9 C 76 % 1019,3 hPa 0,0 l/m 0 min 0 min 0 W/m 0,0 km/h (0 Bft) 97,87 %
28.10.2022 18:42 20,4 C 18,3 C 13,9 C 76 % 1019,3 hPa 0,0 l/m 0 min 0 min 0 W/m 3,2 km/h (1 Bft) 91,49 %
28.10.2022 18:44 20,4 C 18,3 C 13,3 C 76 % 1019,3 hPa 0,0 l/m 0 min 0 min 0 W/m 0,0 km/h (0 Bft) 97,87 %
28.10.2022 18:46 20,3 C 18,3 C 13,3 C 76 % 1019,3 hPa 0,0 l/m 0 min 0 min 0 W/m 0,0 km/h (0 Bft) 95,65 %
28.10.2022 18:48 20,3 C 18,3 C 13,3 C 76 % 1019,4 hPa 0,0 l/m 0 min 0 min 0 W/m 0,0 km/h (0 Bft) 89,36 %
28.10.2022 18:50 20,2 C 17,8 C 13,3 C 77 % 1019,4 hPa 0,0 l/m 0 min 0 min 0 W/m 0,0 km/h (0 Bft) 93,62 %
28.10.2022 18:52 20,2 C 17,8 C 12,8 C 77 % 1019,5 hPa 0,0 l/m 0 min 0 min 0 W/m 0,0 km/h (0 Bft) 93,62 %
28.10.2022 18:54 20,2 C 17,8 C 12,8 C 77 % 1019,5 hPa 0,0 l/m 0 min 0 min 0 W/m 0,0 km/h (0 Bft) 95,74 %
28.10.2022 18:56 20,1 C 17,8 C 12,8 C 78 % 1019,5 hPa 0,0 l/m 0 min 0 min 0 W/m 0,0 km/h (0 Bft) 95,65 %
28.10.2022 18:58 20,1 C 17,2 C 12,8 C 78 % 1019,6 hPa 0,0 l/m 0 min 0 min 0 W/m 0,0 km/h (0 Bft) 93,62 %
28.10.2022 19:00 20,0 C 17,2 C 12,8 C 78 % 1019,5 hPa 0,0 l/m 0 min 0 min 0 W/m 0,0 km/h (0 Bft) 95,74 %
28.10.2022 19:02 19,9 C 17,2 C 12,8 C 78 % 1019,6 hPa 0,0 l/m 0 min 0 min 0 W/m 0,0 km/h (0 Bft) 95,74 %
28.10.2022 19:04 19,8 C 17,2 C 12,8 C 79 % 1019,6 hPa 0,0 l/m 0 min 0 min 0 W/m 0,0 km/h (0 Bft) 95,74 %
28.10.2022 19:06 19,8 C 17,2 C 12,8 C 79 % 1019,7 hPa 0,0 l/m 0 min 0 min 0 W/m 0,0 km/h (0 Bft) 97,87 %
28.10.2022 19:08 19,7 C 17,2 C 12,8 C 79 % 1019,8 hPa 0,0 l/m 0 min 0 min 0 W/m 0,0 km/h (0 Bft) 97,87 %
28.10.2022 19:10 19,7 C 17,2 C 12,8 C 79 % 1019,8 hPa 0,0 l/m 0 min 0 min 0 W/m 0,0 km/h (0 Bft) 95,65 %
28.10.2022 19:12 19,6 C 17,2 C 12,8 C 79 % 1019,8 hPa 0,0 l/m 0 min 0 min 0 W/m 0,0 km/h (0 Bft) 97,87 %
28.10.2022 19:14 19,6 C 17,2 C 12,8 C 79 % 1019,8 hPa 0,0 l/m 0 min 0 min 0 W/m 0,0 km/h (0 Bft) 97,87 %
28.10.2022 19:16 19,5 C 17,2 C 12,8 C 80 % 1019,8 hPa 0,0 l/m 0 min 0 min 0 W/m 0,0 km/h (0 Bft) 95,74 %
28.10.2022 19:18 19,4 C 17,2 C 12,8 C 80 % 1019,8 hPa 0,0 l/m 0 min 0 min 0 W/m 0,0 km/h (0 Bft) 97,87 %
28.10.2022 19:20 19,3 C 17,2 C 12,2 C 80 % 1019,8 hPa 0,0 l/m 0 min 0 min 0 W/m 0,0 km/h (0 Bft) 95,65 %
28.10.2022 19:22 19,3 C 16,7 C 12,2 C 80 % 1019,8 hPa 0,0 l/m 0 min 0 min 0 W/m 0,0 km/h (0 Bft) 93,62 %
28.10.2022 19:24 19,2 C 16,7 C 12,2 C 81 % 1019,7 hPa 0,0 l/m 0 min 0 min 0 W/m 0,0 km/h (0 Bft) 97,87 %
28.10.2022 19:26 19,2 C 16,7 C 12,2 C 81 % 1019,8 hPa 0,0 l/m 0 min 0 min 0 W/m 0,0 km/h (0 Bft) 95,74 %
28.10.2022 19:28 19,1 C 16,7 C 12,2 C 81 % 1019,8 hPa 0,0 l/m 0 min 0 min 0 W/m 0,0 km/h (0 Bft) 95,74 %
28.10.2022 19:30 19,1 C 16,7 C 12,2 C 81 % 1019,9 hPa 0,0 l/m 0 min 0 min 0 W/m 0,0 km/h (0 Bft) 97,87 %
28.10.2022 19:32 19,1 C 16,7 C 12,2 C 81 % 1019,9 hPa 0,0 l/m 0 min 0 min 0 W/m 0,0 km/h (0 Bft) 95,74 %
28.10.2022 19:34 19,0 C 16,7 C 12,2 C 81 % 1019,9 hPa 0,0 l/m 0 min 0 min 0 W/m 0,0 km/h (0 Bft) 95,65 %
28.10.2022 19:36 18,9 C 16,7 C 12,2 C 81 % 1019,9 hPa 0,0 l/m 0 min 0 min 0 W/m 0,0 km/h (0 Bft) 100,00 %
28.10.2022 19:38 18,9 C 16,7 C 12,2 C 82 % 1019,9 hPa 0,0 l/m 0 min 0 min 0 W/m 0,0 km/h (0 Bft) 100,00 %
28.10.2022 19:40 18,8 C 16,7 C 12,2 C 82 % 1020,0 hPa 0,0 l/m 0 min 0 min 0 W/m 0,0 km/h (0 Bft) 97,87 %
28.10.2022 19:42 18,7 C 16,1 C 12,2 C 82 % 1020,0 hPa 0,0 l/m 0 min 0 min 0 W/m 0,0 km/h (0 Bft) 100,00 %
28.10.2022 19:44 18,7 C 16,1 C 11,7 C 82 % 1019,9 hPa 0,0 l/m 0 min 0 min 0 W/m 0,0 km/h (0 Bft) 100,00 %
28.10.2022 19:46 18,6 C 16,1 C 11,7 C 82 % 1019,9 hPa 0,0 l/m 0 min 0 min 0 W/m 0,0 km/h (0 Bft) 97,83 %
28.10.2022 19:48 18,6 C 16,1 C 11,7 C 83 % 1019,9 hPa 0,0 l/m 0 min 0 min 0 W/m 0,0 km/h (0 Bft) 100,00 %
28.10.2022 19:50 18,5 C 16,1 C 11,7 C 83 % 1019,9 hPa 0,0 l/m 0 min 0 min 0 W/m 0,0 km/h (0 Bft) 100,00 %
28.10.2022 19:52 18,4 C 16,1 C 11,7 C 83 % 1019,9 hPa 0,0 l/m 0 min 0 min 0 W/m 0,0 km/h (0 Bft) 97,87 %
28.10.2022 19:54 18,4 C 16,1 C 11,7 C 83 % 1020,0 hPa 0,0 l/m 0 min 0 min 0 W/m 0,0 km/h (0 Bft) 97,87 %
28.10.2022 19:56 18,3 C 16,1 C 11,7 C 84 % 1020,0 hPa 0,0 l/m 0 min 0 min 0 W/m 0,0 km/h (0 Bft) 100,00 %
28.10.2022 19:58 18,2 C 16,1 C 11,7 C 84 % 1020,0 hPa 0,0 l/m 0 min 0 min 0 W/m 0,0 km/h (0 Bft) 95,65 %
28.10.2022 20:00 18,2 C 16,1 C 11,7 C 84 % 1020,0 hPa 0,0 l/m 0 min 0 min 0 W/m 0,0 km/h (0 Bft) 100,00 %
28.10.2022 20:02 18,2 C 16,1 C 11,7 C 84 % 1020,1 hPa 0,0 l/m 0 min 0 min 0 W/m 0,0 km/h (0 Bft) 100,00 %
28.10.2022 20:04 18,1 C 16,1 C 11,7 C 84 % 1020,1 hPa 0,0 l/m 0 min 0 min 0 W/m 0,0 km/h (0 Bft) 95,74 %
28.10.2022 20:06 18,1 C 16,1 C 11,7 C 84 % 1020,1 hPa 0,0 l/m 0 min 0 min 0 W/m 0,0 km/h (0 Bft) 100,00 %
28.10.2022 20:08 18,0 C 16,1 C 11,7 C 85 % 1020,1 hPa 0,0 l/m 0 min 0 min 0 W/m 0,0 km/h (0 Bft) 100,00 %
28.10.2022 20:10 17,9 C 16,1 C 11,7 C 85 % 1020,1 hPa 0,0 l/m 0 min 0 min 0 W/m 0,0 km/h (0 Bft) 97,87 %
28.10.2022 20:12 17,9 C 16,1 C 11,7 C 85 % 1020,1 hPa 0,0 l/m 0 min 0 min 0 W/m 0,0 km/h (0 Bft) 97,87 %
28.10.2022 20:14 17,9 C 16,1 C 11,7 C 85 % 1020,2 hPa 0,0 l/m 0 min 0 min 0 W/m 0,0 km/h (0 Bft) 97,87 %
28.10.2022 20:16 17,8 C 16,1 C 11,7 C 85 % 1020,2 hPa 0,0 l/m 0 min 0 min 0 W/m 0,0 km/h (0 Bft) 97,87 %
28.10.2022 20:18 17,8 C 16,1 C 11,7 C 85 % 1020,2 hPa 0,0 l/m 0 min 0 min 0 W/m 0,0 km/h (0 Bft) 100,00 %
28.10.2022 20:20 17,8 C 16,1 C 11,7 C 85 % 1020,2 hPa 0,0 l/m 0 min 0 min 0 W/m 0,0 km/h (0 Bft) 100,00 %
28.10.2022 20:22 17,7 C 16,1 C 11,7 C 85 % 1020,2 hPa 0,0 l/m 0 min 0 min 0 W/m 0,0 km/h (0 Bft) 97,83 %
28.10.2022 20:24 17,7 C 16,1 C 11,7 C 85 % 1020,1 hPa 0,0 l/m 0 min 0 min 0 W/m 0,0 km/h (0 Bft) 97,87 %
28.10.2022 20:26 17,7 C 16,1 C 11,7 C 85 % 1020,2 hPa 0,0 l/m 0 min 0 min 0 W/m 0,0 km/h (0 Bft) 95,74 %
28.10.2022 20:28 17,7 C 16,1 C 11,7 C 85 % 1020,1 hPa 0,0 l/m 0 min 0 min 0 W/m 3,2 km/h (1 Bft) 97,87 %
28.10.2022 20:30 17,6 C 16,1 C 11,7 C 85 % 1020,1 hPa 0,0 l/m 0 min 0 min 0 W/m 0,0 km/h (0 Bft) 100,00 %
28.10.2022 20:32 17,6 C 16,1 C 11,7 C 85 % 1020,2 hPa 0,0 l/m 0 min 0 min 0 W/m 0,0 km/h (0 Bft) 97,83 %
28.10.2022 20:34 17,6 C 16,1 C 11,7 C 85 % 1020,1 hPa 0,0 l/m 0 min 0 min 0 W/m 0,0 km/h (0 Bft) 97,87 %
28.10.2022 20:36 17,6 C 16,1 C 11,7 C 86 % 1020,2 hPa 0,0 l/m 0 min 0 min 0 W/m 3,2 km/h (1 Bft) 95,74 %
28.10.2022 20:38 17,6 C 16,1 C 11,7 C 86 % 1020,3 hPa 0,0 l/m 0 min 0 min 0 W/m 3,2 km/h (1 Bft) 95,74 %
28.10.2022 20:40 17,5 C 16,1 C 11,7 C 86 % 1020,4 hPa 0,0 l/m 0 min 0 min 0 W/m 0,0 km/h (0 Bft) 95,83 %
28.10.2022 20:42 17,5 C 16,1 C 11,7 C 86 % 1020,4 hPa 0,0 l/m 0 min 0 min 0 W/m 0,0 km/h (0 Bft) 95,74 %
28.10.2022 20:44 17,5 C 16,1 C 11,7 C 86 % 1020,4 hPa 0,0 l/m 0 min 0 min 0 W/m 0,0 km/h (0 Bft) 95,65 %
28.10.2022 20:46 17,4 C 16,1 C 11,7 C 86 % 1020,5 hPa 0,0 l/m 0 min 0 min 0 W/m 3,2 km/h (1 Bft) 93,62 %
28.10.2022 20:48 17,4 C 16,1 C 11,7 C 86 % 1020,5 hPa 0,0 l/m 0 min 0 min 0 W/m 0,0 km/h (0 Bft) 93,62 %
28.10.2022 20:50 17,4 C 16,1 C 11,7 C 86 % 1020,5 hPa 0,0 l/m 0 min 0 min 0 W/m 0,0 km/h (0 Bft) 95,74 %
28.10.2022 20:52 17,4 C 16,1 C 11,7 C 86 % 1020,5 hPa 0,0 l/m 0 min 0 min 0 W/m 0,0 km/h (0 Bft) 97,87 %
28.10.2022 20:54 17,4 C 16,1 C 11,7 C 86 % 1020,4 hPa 0,0 l/m 0 min 0 min 0 W/m 0,0 km/h (0 Bft) 95,74 %
28.10.2022 20:56 17,4 C 16,1 C 11,7 C 86 % 1020,4 hPa 0,0 l/m 0 min 0 min 0 W/m 0,0 km/h (0 Bft) 100,00 %
28.10.2022 20:58 17,4 C 16,1 C 11,7 C 86 % 1020,4 hPa 0,0 l/m 0 min 0 min 0 W/m 0,0 km/h (0 Bft) 97,87 %
28.10.2022 21:00 17,3 C 15,6 C 11,7 C 86 % 1020,4 hPa 0,0 l/m 0 min 0 min 0 W/m 0,0 km/h (0 Bft) 95,74 %
28.10.2022 21:02 17,3 C 15,6 C 11,1 C 86 % 1020,5 hPa 0,0 l/m 0 min 0 min 0 W/m 0,0 km/h (0 Bft) 97,87 %
28.10.2022 21:04 17,3 C 15,6 C 11,1 C 87 % 1020,6 hPa 0,0 l/m 0 min 0 min 0 W/m 0,0 km/h (0 Bft) 97,87 %
28.10.2022 21:06 17,3 C 15,6 C 11,1 C 87 % 1020,6 hPa 0,0 l/m 0 min 0 min 0 W/m 0,0 km/h (0 Bft) 95,74 %
28.10.2022 21:08 17,3 C 15,6 C 11,1 C 87 % 1020,6 hPa 0,0 l/m 0 min 0 min 0 W/m 0,0 km/h (0 Bft) 97,83 %
28.10.2022 21:10 17,2 C 15,6 C 11,1 C 87 % 1020,5 hPa 0,0 l/m 0 min 0 min 0 W/m 0,0 km/h (0 Bft) 95,74 %
28.10.2022 21:12 17,2 C 15,6 C 11,1 C 87 % 1020,6 hPa 0,0 l/m 0 min 0 min 0 W/m 0,0 km/h (0 Bft) 95,74 %
28.10.2022 21:14 17,2 C 15,6 C 11,1 C 87 % 1020,6 hPa 0,0 l/m 0 min 0 min 0 W/m 0,0 km/h (0 Bft) 95,74 %
28.10.2022 21:16 17,2 C 15,6 C 11,1 C 87 % 1020,6 hPa 0,0 l/m 0 min 0 min 0 W/m 0,0 km/h (0 Bft) 93,62 %
28.10.2022 21:18 17,1 C 15,6 C 11,1 C 87 % 1020,7 hPa 0,0 l/m 0 min 0 min 0 W/m 0,0 km/h (0 Bft) 95,74 %
28.10.2022 21:20 17,1 C 15,6 C 11,1 C 87 % 1020,7 hPa 0,0 l/m 0 min 0 min 0 W/m 0,0 km/h (0 Bft) 95,65 %
28.10.2022 21:22 17,1 C 15,6 C 11,7 C 88 % 1020,7 hPa 0,0 l/m 0 min 0 min 0 W/m 0,0 km/h (0 Bft) 95,74 %
28.10.2022 21:24 17,1 C 15,6 C 11,7 C 88 % 1020,7 hPa 0,0 l/m 0 min 0 min 0 W/m 0,0 km/h (0 Bft) 93,62 %
28.10.2022 21:26 17,1 C 15,6 C 11,7 C 88 % 1020,7 hPa 0,0 l/m 0 min 0 min 0 W/m 0,0 km/h (0 Bft) 95,74 %
28.10.2022 21:28 17,0 C 15,6 C 11,7 C 88 % 1020,8 hPa 0,0 l/m 0 min 0 min 0 W/m 0,0 km/h (0 Bft) 95,74 %
28.10.2022 21:30 17,0 C 15,6 C 11,7 C 88 % 1020,8 hPa 0,0 l/m 0 min 0 min 0 W/m 0,0 km/h (0 Bft) 97,87 %
28.10.2022 21:32 17,0 C 15,6 C 11,7 C 88 % 1020,8 hPa 0,0 l/m 0 min 0 min 0 W/m 0,0 km/h (0 Bft) 97,83 %
28.10.2022 21:34 17,0 C 15,6 C 11,7 C 89 % 1020,8 hPa 0,0 l/m 0 min 0 min 0 W/m 0,0 km/h (0 Bft) 97,87 %
28.10.2022 21:36 16,9 C 15,6 C 11,7 C 88 % 1020,8 hPa 0,0 l/m 0 min 0 min 0 W/m 0,0 km/h (0 Bft) 95,74 %
28.10.2022 21:38 16,9 C 15,6 C 11,7 C 89 % 1020,8 hPa 0,0 l/m 0 min 0 min 0 W/m 0,0 km/h (0 Bft) 95,74 %
28.10.2022 21:40 16,9 C 15,6 C 11,7 C 89 % 1020,8 hPa 0,0 l/m 0 min 0 min 0 W/m 0,0 km/h (0 Bft) 95,74 %
28.10.2022 21:42 16,9 C 15,6 C 11,7 C 89 % 1020,9 hPa 0,0 l/m 0 min 0 min 0 W/m 0,0 km/h (0 Bft) 97,87 %
28.10.2022 21:44 16,9 C 15,6 C 11,7 C 89 % 1020,9 hPa 0,0 l/m 0 min 0 min 0 W/m 0,0 km/h (0 Bft) 97,83 %
28.10.2022 21:46 16,8 C 15,6 C 11,7 C 89 % 1020,9 hPa 0,0 l/m 0 min 0 min 0 W/m 0,0 km/h (0 Bft) 93,62 %
28.10.2022 21:48 16,8 C 15,6 C 11,7 C 89 % 1020,9 hPa 0,0 l/m 0 min 0 min 0 W/m 0,0 km/h (0 Bft) 89,36 %
28.10.2022 21:50 16,8 C 15,6 C 11,7 C 89 % 1020,9 hPa 0,0 l/m 0 min 0 min 0 W/m 0,0 km/h (0 Bft) 97,87 %
28.10.2022 21:52 16,8 C 15,6 C 11,7 C 89 % 1020,9 hPa 0,0 l/m 0 min 0 min 0 W/m 0,0 km/h (0 Bft) 97,87 %
28.10.2022 21:54 16,8 C 15,6 C 11,7 C 89 % 1020,9 hPa 0,0 l/m 0 min 0 min 0 W/m 0,0 km/h (0 Bft) 100,00 %
28.10.2022 21:56 16,8 C 15,6 C 11,7 C 90 % 1020,9 hPa 0,0 l/m 0 min 0 min 0 W/m 0,0 km/h (0 Bft) 100,00 %
28.10.2022 21:58 16,8 C 15,6 C 11,7 C 90 % 1020,9 hPa 0,0 l/m 0 min 0 min 0 W/m 0,0 km/h (0 Bft) 97,87 %
28.10.2022 22:00 16,7 C 15,6 C 11,7 C 90 % 1020,9 hPa 0,0 l/m 0 min 0 min 0 W/m 0,0 km/h (0 Bft) 100,00 %
28.10.2022 22:02 16,7 C 15,6 C 11,7 C 90 % 1020,9 hPa 0,0 l/m 0 min 0 min 0 W/m 0,0 km/h (0 Bft) 100,00 %
28.10.2022 22:04 16,7 C 15,6 C 11,7 C 90 % 1020,9 hPa 0,0 l/m 0 min 0 min 0 W/m 0,0 km/h (0 Bft) 100,00 %
28.10.2022 22:06 16,7 C 15,6 C 11,7 C 90 % 1021,0 hPa 0,0 l/m 0 min 0 min 0 W/m 0,0 km/h (0 Bft) 98,31 %
28.10.2022 22:08 16,7 C 15,6 C 11,7 C 90 % 1021,0 hPa 0,0 l/m 0 min 0 min 0 W/m 0,0 km/h (0 Bft) 100,00 %
28.10.2022 22:10 16,7 C 15,6 C 11,7 C 90 % 1021,1 hPa 0,0 l/m 0 min 0 min 0 W/m 0,0 km/h (0 Bft) 100,00 %
28.10.2022 22:12 16,7 C 15,6 C 11,1 C 90 % 1021,1 hPa 0,0 l/m 0 min 0 min 0 W/m 0,0 km/h (0 Bft) 95,74 %
28.10.2022 22:14 16,7 C 15,6 C 11,1 C 90 % 1021,1 hPa 0,0 l/m 0 min 0 min 0 W/m 0,0 km/h (0 Bft) 95,74 %
28.10.2022 22:16 16,7 C 15,6 C 11,1 C 90 % 1021,2 hPa 0,0 l/m 0 min 0 min 0 W/m 0,0 km/h (0 Bft) 97,87 %
28.10.2022 22:18 16,6 C 15,6 C 11,1 C 90 % 1021,2 hPa 0,0 l/m 0 min 0 min 0 W/m 0,0 km/h (0 Bft) 97,87 %
28.10.2022 22:20 16,6 C 15,0 C 11,1 C 90 % 1021,2 hPa 0,0 l/m 0 min 0 min 0 W/m 0,0 km/h (0 Bft) 97,87 %
28.10.2022 22:22 16,6 C 15,0 C 11,1 C 90 % 1021,2 hPa 0,0 l/m 0 min 0 min 0 W/m 0,0 km/h (0 Bft) 95,65 %
28.10.2022 22:24 16,6 C 15,0 C 11,1 C 90 % 1021,1 hPa 0,0 l/m 0 min 0 min 0 W/m 0,0 km/h (0 Bft) 97,87 %
28.10.2022 22:26 16,6 C 15,0 C 11,1 C 90 % 1021,2 hPa 0,0 l/m 0 min 0 min 0 W/m 0,0 km/h (0 Bft) 97,87 %
28.10.2022 22:28 16,5 C 15,0 C 11,1 C 90 % 1021,3 hPa 0,0 l/m 0 min 0 min 0 W/m 0,0 km/h (0 Bft) 97,87 %
28.10.2022 22:30 16,5 C 15,0 C 11,1 C 90 % 1021,3 hPa 0,0 l/m 0 min 0 min 0 W/m 0,0 km/h (0 Bft) 97,87 %
28.10.2022 22:32 16,4 C 14,4 C 11,1 C 90 % 1021,3 hPa 0,0 l/m 0 min 0 min 0 W/m 0,0 km/h (0 Bft) 93,62 %
28.10.2022 22:34 16,4 C 14,4 C 11,1 C 90 % 1021,3 hPa 0,0 l/m 0 min 0 min 0 W/m 0,0 km/h (0 Bft) 97,87 %
28.10.2022 22:36 16,4 C 14,4 C 11,1 C 90 % 1021,3 hPa 0,0 l/m 0 min 0 min 0 W/m 0,0 km/h (0 Bft) 96,15 %
28.10.2022 22:38 16,4 C 14,4 C 11,1 C 90 % 1021,3 hPa 0,0 l/m 0 min 0 min 0 W/m 0,0 km/h (0 Bft) 97,87 %
28.10.2022 22:40 16,3 C 14,4 C 11,1 C 90 % 1021,3 hPa 0,0 l/m 0 min 0 min 0 W/m 0,0 km/h (0 Bft) 97,87 %
28.10.2022 22:42 16,3 C 15,0 C 11,1 C 90 % 1021,3 hPa 0,0 l/m 0 min 0 min 0 W/m 0,0 km/h (0 Bft) 97,87 %
28.10.2022 22:44 16,3 C 15,0 C 11,1 C 90 % 1021,3 hPa 0,0 l/m 0 min 0 min 0 W/m 0,0 km/h (0 Bft) 100,00 %
28.10.2022 22:46 16,3 C 15,0 C 11,1 C 90 % 1021,3 hPa 0,0 l/m 0 min 0 min 0 W/m 0,0 km/h (0 Bft) 100,00 %
28.10.2022 22:48 16,3 C 15,0 C 11,1 C 90 % 1021,3 hPa 0,0 l/m 0 min 0 min 0 W/m 0,0 km/h (0 Bft) 100,00 %
28.10.2022 22:50 16,2 C 15,0 C 11,1 C 90 % 1021,4 hPa 0,0 l/m 0 min 0 min 0 W/m 3,2 km/h (1 Bft) 95,74 %
28.10.2022 22:52 16,3 C 15,0 C 11,1 C 91 % 1021,4 hPa 0,0 l/m 0 min 0 min 0 W/m 3,2 km/h (1 Bft) 100,00 %
28.10.2022 22:54 16,2 C 15,0 C 11,1 C 91 % 1021,5 hPa 0,0 l/m 0 min 0 min 0 W/m 0,0 km/h (0 Bft) 100,00 %
28.10.2022 22:56 16,2 C 15,0 C 11,1 C 91 % 1021,5 hPa 0,0 l/m 0 min 0 min 0 W/m 0,0 km/h (0 Bft) 100,00 %
28.10.2022 22:58 16,2 C 15,0 C 11,1 C 91 % 1021,5 hPa 0,0 l/m 0 min 0 min 0 W/m 0,0 km/h (0 Bft) 100,00 %
28.10.2022 23:00 16,2 C 15,0 C 11,1 C 91 % 1021,5 hPa 0,0 l/m 0 min 0 min 0 W/m 0,0 km/h (0 Bft) 100,00 %
28.10.2022 23:02 16,2 C 15,0 C 11,1 C 91 % 1021,5 hPa 0,0 l/m 0 min 0 min 0 W/m 0,0 km/h (0 Bft) 97,87 %
28.10.2022 23:04 16,2 C 15,0 C 11,1 C 91 % 1021,5 hPa 0,0 l/m 0 min 0 min 0 W/m 0,0 km/h (0 Bft) 100,00 %
28.10.2022 23:06 16,2 C 15,0 C 11,1 C 91 % 1021,6 hPa 0,0 l/m 0 min 0 min 0 W/m 0,0 km/h (0 Bft) 100,00 %
28.10.2022 23:08 16,2 C 15,0 C 11,1 C 91 % 1021,6 hPa 0,0 l/m 0 min 0 min 0 W/m 0,0 km/h (0 Bft) 100,00 %
28.10.2022 23:10 16,2 C 15,0 C 11,1 C 91 % 1021,6 hPa 0,0 l/m 0 min 0 min 0 W/m 0,0 km/h (0 Bft) 100,00 %
28.10.2022 23:12 16,1 C 15,0 C 11,1 C 91 % 1021,6 hPa 0,0 l/m 0 min 0 min 0 W/m 0,0 km/h (0 Bft) 100,00 %
28.10.2022 23:14 16,1 C 15,0 C 11,1 C 91 % 1021,6 hPa 0,0 l/m 0 min 0 min 0 W/m 0,0 km/h (0 Bft) 97,87 %
28.10.2022 23:16 16,1 C 15,0 C 11,1 C 91 % 1021,7 hPa 0,0 l/m 0 min 0 min 0 W/m 0,0 km/h (0 Bft) 100,00 %
28.10.2022 23:18 16,1 C 14,4 C 11,1 C 91 % 1021,7 hPa 0,0 l/m 0 min 0 min 0 W/m 0,0 km/h (0 Bft) 97,87 %
28.10.2022 23:20 16,1 C 14,4 C 11,1 C 91 % 1021,7 hPa 0,0 l/m 0 min 0 min 0 W/m 0,0 km/h (0 Bft) 100,00 %
28.10.2022 23:22 16,1 C 14,4 C 11,1 C 91 % 1021,7 hPa 0,0 l/m 0 min 0 min 0 W/m 0,0 km/h (0 Bft) 100,00 %
28.10.2022 23:24 16,1 C 14,4 C 11,1 C 91 % 1021,7 hPa 0,0 l/m 0 min 0 min 0 W/m 0,0 km/h (0 Bft) 100,00 %
28.10.2022 23:26 16,1 C 14,4 C 11,1 C 91 % 1021,7 hPa 0,0 l/m 0 min 0 min 0 W/m 0,0 km/h (0 Bft) 100,00 %
28.10.2022 23:28 16,1 C 14,4 C 11,1 C 91 % 1021,7 hPa 0,0 l/m 0 min 0 min 0 W/m 0,0 km/h (0 Bft) 95,74 %
28.10.2022 23:30 16,0 C 14,4 C 11,1 C 91 % 1021,7 hPa 0,0 l/m 0 min 0 min 0 W/m 0,0 km/h (0 Bft) 97,87 %
28.10.2022 23:32 16,0 C 14,4 C 11,1 C 91 % 1021,7 hPa 0,0 l/m 0 min 0 min 0 W/m 0,0 km/h (0 Bft) 97,87 %
28.10.2022 23:34 16,0 C 14,4 C 10,6 C 91 % 1021,7 hPa 0,0 l/m 0 min 0 min 0 W/m 0,0 km/h (0 Bft) 100,00 %
28.10.2022 23:36 15,9 C 14,4 C 10,6 C 91 % 1021,8 hPa 0,0 l/m 0 min 0 min 0 W/m 0,0 km/h (0 Bft) 96,23 %
28.10.2022 23:38 15,9 C 14,4 C 10,6 C 91 % 1021,8 hPa 0,0 l/m 0 min 0 min 0 W/m 0,0 km/h (0 Bft) 100,00 %
28.10.2022 23:40 15,9 C 14,4 C 10,6 C 91 % 1021,8 hPa 0,0 l/m 0 min 0 min 0 W/m 0,0 km/h (0 Bft) 97,87 %
28.10.2022 23:42 15,9 C 14,4 C 10,6 C 91 % 1021,8 hPa 0,0 l/m 0 min 0 min 0 W/m 0,0 km/h (0 Bft) 97,87 %
28.10.2022 23:44 15,9 C 14,4 C 10,6 C 91 % 1021,8 hPa 0,0 l/m 0 min 0 min 0 W/m 0,0 km/h (0 Bft) 93,48 %
28.10.2022 23:46 15,9 C 14,4 C 10,6 C 91 % 1021,9 hPa 0,0 l/m 0 min 0 min 0 W/m 0,0 km/h (0 Bft) 97,56 %
28.10.2022 23:48 15,9 C 14,4 C 10,6 C 91 % 1021,8 hPa 0,0 l/m 0 min 0 min 0 W/m 0,0 km/h (0 Bft) 91,49 %
28.10.2022 23:50 15,9 C 14,4 C 10,6 C 92 % 1021,8 hPa 0,0 l/m 0 min 0 min 0 W/m 0,0 km/h (0 Bft) 95,74 %
28.10.2022 23:52 15,8 C 14,4 C 10,6 C 92 % 1021,8 hPa 0,0 l/m 0 min 0 min 0 W/m 0,0 km/h (0 Bft) 93,62 %
28.10.2022 23:54 15,8 C 14,4 C 10,6 C 92 % 1021,7 hPa 0,0 l/m 0 min 0 min 0 W/m 0,0 km/h (0 Bft) 95,74 %
28.10.2022 23:56 15,8 C 14,4 C 10,6 C 92 % 1021,7 hPa 0,0 l/m 0 min 0 min 0 W/m 0,0 km/h (0 Bft) 91,49 %
28.10.2022 23:58 15,8 C 14,4 C 10,6 C 92 % 1021,7 hPa 0,0 l/m 0 min 0 min 0 W/m 0,0 km/h (0 Bft) 93,48 %
_ Min-Zeit 23:52 22:32 23:34 15:24 14:20 - - - - 00:02 00:02
Minimum _ 15,8 C 14,4 C 10,6 C 63 % 1017,3 hPa - - - - 0,0 km/h (0 Bft) 11,76 %
_ Max-Zeit 15:38 11:20 15:20 23:50 23:46 00:00 10:46 00:00 14:04 15:00 00:00
Maximum _ 24,3 C 25,6 C 18,9 C 92 % 1021,9 hPa 0,0 l/m 2 min 0 min 379 W/m 29,0 km/h
S-SW (5 Bft)
100,00 %
Durchschnitt _ 18,7 C 18,0 C 13,7 C 84 % 1018,8 hPa #0,0 l/m #2:08 h #0 min. 129 W/m 8,1 km/h (2 Bft) 97,11 %
© 2022 W. Hausmann